AZU8901 LPPT-SBKP

Flight info

Callsign AZU8901
Flight time 9h 38m
Altitude 35000
Route BEVOP DCT BAROK UN873 SAMAR N873 ODEGI/N0482F360 N873 IPERA UN873 POMAT/N0482F380 UN873 SIRED/N0478F400 UN873 NTL DCT DABAD UZ30 ENTIT
Aircraft B772/H-SDE2E3FGHIJ5LORVWXY/LB1D1

Departure

Time 2026-05-07 12:46
Airport Lisbon Humberto Delgado Airport (LPPT)

Arrival

Time 2026-05-07 22:24
Airport Viracopos International Airport (SBKP)
Time Latitude Longitude Altitude Speed Heading
2026-05-07 12:01 38.77548 -9.13186 342 ft 0 kts 78°
2026-05-07 12:29 38.77547 -9.13194 342 ft 4 kts 78°
2026-05-07 12:29 38.77541 -9.13228 349 ft 4 kts 79°
2026-05-07 12:29 38.77537 -9.13262 353 ft 4 kts 86°
2026-05-07 12:29 38.77538 -9.13293 353 ft 4 kts 112°
2026-05-07 12:30 38.77545 -9.13310 353 ft 3 kts 165°
2026-05-07 12:30 38.77548 -9.13311 353 ft 3 kts 168°
2026-05-07 12:33 38.77486 -9.13295 351 ft 10 kts 169°
2026-05-07 12:33 38.77410 -9.13274 350 ft 7 kts 167°
2026-05-07 12:33 38.77361 -9.13274 348 ft 7 kts 199°
2026-05-07 12:34 38.77327 -9.13321 353 ft 7 kts 233°
2026-05-07 12:34 38.77311 -9.13348 351 ft 0 kts 232°
2026-05-07 12:34 38.77309 -9.13351 350 ft 1 kts 232°
2026-05-07 12:34 38.77306 -9.13356 356 ft 1 kts 231°
2026-05-07 12:35 38.77292 -9.13361 356 ft 3 kts 192°
2026-05-07 12:35 38.77258 -9.13360 353 ft 8 kts 173°
2026-05-07 12:35 38.77185 -9.13340 352 ft 12 kts 168°
2026-05-07 12:35 38.77129 -9.13325 353 ft 12 kts 168°
2026-05-07 12:36 38.77016 -9.13296 353 ft 14 kts 168°
2026-05-07 12:36 38.76900 -9.13264 352 ft 18 kts 168°
2026-05-07 12:36 38.76829 -9.13246 345 ft 13 kts 171°
2026-05-07 12:36 38.76759 -9.13315 355 ft 10 kts 250°
2026-05-07 12:37 38.76742 -9.13369 350 ft 9 kts 243°
2026-05-07 12:37 38.76677 -9.13443 357 ft 9 kts 220°
2026-05-07 12:37 38.76650 -9.13519 357 ft 10 kts 256°
2026-05-07 12:37 38.76640 -9.13575 357 ft 10 kts 258°
2026-05-07 12:38 38.76625 -9.13662 356 ft 12 kts 258°
2026-05-07 12:38 38.76604 -9.13791 350 ft 21 kts 258°
2026-05-07 12:38 38.76581 -9.13936 355 ft 12 kts 258°
2026-05-07 12:38 38.76547 -9.14027 359 ft 11 kts 232°
2026-05-07 12:39 38.76505 -9.14103 359 ft 9 kts 247°
2026-05-07 12:39 38.76499 -9.14168 356 ft 5 kts 280°
2026-05-07 12:39 38.76501 -9.14177 357 ft 0 kts 281°
2026-05-07 12:41 38.76501 -9.14179 356 ft 1 kts 281°
2026-05-07 12:42 38.76507 -9.14206 350 ft 5 kts 286°
2026-05-07 12:42 38.76523 -9.14259 347 ft 8 kts 292°
2026-05-07 12:42 38.76531 -9.14285 354 ft 0 kts 293°
2026-05-07 12:43 38.76532 -9.14286 354 ft 1 kts 293°
2026-05-07 12:43 38.76542 -9.14316 348 ft 8 kts 293°
2026-05-07 12:43 38.76568 -9.14388 335 ft 7 kts 306°
2026-05-07 12:43 38.76616 -9.14400 335 ft 7 kts 11°
2026-05-07 12:44 38.76648 -9.14386 336 ft 0 kts 21°
2026-05-07 12:44 38.76667 -9.14378 338 ft 12 kts 19°
2026-05-07 12:45 38.76803 -9.14300 350 ft 39 kts 24°
2026-05-07 12:45 38.77262 -9.14060 369 ft 102 kts 23°
2026-05-07 12:45 38.78097 -9.13615 375 ft 156 kts 24°
2026-05-07 12:45 38.79185 -9.13022 660 ft 176 kts 18°
2026-05-07 12:46 38.80305 -9.12387 1382 ft 180 kts 23°
2026-05-07 12:46 38.81423 -9.11620 2050 ft 183 kts 27°
2026-05-07 12:46 38.82596 -9.10759 2323 ft 205 kts 27°
2026-05-07 12:46 38.83904 -9.09789 2557 ft 229 kts 28°
2026-05-07 12:47 38.85345 -9.08707 2760 ft 251 kts 28°
2026-05-07 12:47 38.86793 -9.07416 3133 ft 259 kts 46°
2026-05-07 12:47 38.87708 -9.05402 3639 ft 265 kts 73°
2026-05-07 12:47 38.88050 -9.03107 4308 ft 261 kts 86°
2026-05-07 12:48 38.87801 -9.00830 4790 ft 262 kts 117°
2026-05-07 12:48 38.86858 -8.98817 5213 ft 266 kts 124°
2026-05-07 12:48 38.85621 -8.97121 5631 ft 266 kts 153°
2026-05-07 12:48 38.83877 -8.96538 6371 ft 259 kts 181°
2026-05-07 12:49 38.82094 -8.96882 6882 ft 261 kts 197°
2026-05-07 12:49 38.80367 -8.97691 7347 ft 267 kts 201°
2026-05-07 12:49 38.78640 -8.98622 7811 ft 271 kts 202°
2026-05-07 12:49 38.76909 -8.99579 8341 ft 272 kts 202°
2026-05-07 12:50 38.75155 -9.00549 8810 ft 275 kts 202°
2026-05-07 12:50 38.73392 -9.01518 9335 ft 277 kts 202°
2026-05-07 12:50 38.71614 -9.02487 9835 ft 278 kts 202°
2026-05-07 12:50 38.69816 -9.03461 10204 ft 284 kts 202°
2026-05-07 12:51 38.67940 -9.04473 10301 ft 300 kts 202°
2026-05-07 12:51 38.65962 -9.05538 10427 ft 317 kts 202°
2026-05-07 12:51 38.63868 -9.06660 10535 ft 336 kts 202°
2026-05-07 12:51 38.61652 -9.07846 10695 ft 353 kts 203°
2026-05-07 12:52 38.59360 -9.09071 11270 ft 360 kts 203°
2026-05-07 12:52 38.57045 -9.10308 12042 ft 362 kts 203°
2026-05-07 12:52 38.54711 -9.11551 12798 ft 366 kts 203°
2026-05-07 12:52 38.52331 -9.12818 13326 ft 376 kts 204°
2026-05-07 12:53 38.49928 -9.14100 13917 ft 383 kts 204°
2026-05-07 12:53 38.47466 -9.15414 14637 ft 384 kts 204°
2026-05-07 12:53 38.45004 -9.16721 15423 ft 385 kts 204°
2026-05-07 12:53 38.42507 -9.18043 15967 ft 392 kts 204°
2026-05-07 12:54 38.39926 -9.19253 16422 ft 399 kts 199°
2026-05-07 12:54 38.37235 -9.20253 16901 ft 406 kts 197°
2026-05-07 12:54 38.34489 -9.21185 17430 ft 410 kts 197°
2026-05-07 12:54 38.31716 -9.22118 17999 ft 413 kts 197°
2026-05-07 12:55 38.28933 -9.23074 18504 ft 415 kts 198°
2026-05-07 12:55 38.26147 -9.24051 18997 ft 417 kts 198°
2026-05-07 12:55 38.23341 -9.25052 19471 ft 419 kts 199°
2026-05-07 12:55 38.20528 -9.26063 19957 ft 421 kts 199°
2026-05-07 12:56 38.17704 -9.27082 20420 ft 423 kts 199°
2026-05-07 12:56 38.14861 -9.28108 20868 ft 425 kts 199°
2026-05-07 12:56 38.12003 -9.29138 21315 ft 428 kts 199°
2026-05-07 12:56 38.09133 -9.30171 21757 ft 430 kts 199°
2026-05-07 12:57 38.06244 -9.31209 22200 ft 432 kts 199°
2026-05-07 12:57 38.03346 -9.32250 22625 ft 434 kts 200°
2026-05-07 12:57 38.00429 -9.33293 23065 ft 437 kts 199°
2026-05-07 12:57 37.97443 -9.34086 23428 ft 443 kts 192°
2026-05-07 12:58 37.94354 -9.34528 23755 ft 448 kts 189°
2026-05-07 12:58 37.91278 -9.34833 24092 ft 451 kts 188°
2026-05-07 12:58 37.88148 -9.35129 24461 ft 452 kts 189°
2026-05-07 12:58 37.85001 -9.35462 24809 ft 454 kts 189°
2026-05-07 12:59 37.81851 -9.35834 25140 ft 456 kts 190°
2026-05-07 12:59 37.78685 -9.36237 25464 ft 458 kts 191°
2026-05-07 12:59 37.75518 -9.36652 25810 ft 459 kts 191°
2026-05-07 12:59 37.72330 -9.37074 26149 ft 461 kts 191°
2026-05-07 13:00 37.69138 -9.37495 26469 ft 463 kts 191°
2026-05-07 13:00 37.65914 -9.37918 26706 ft 467 kts 191°
2026-05-07 13:00 37.62679 -9.38340 27043 ft 468 kts 191°
2026-05-07 13:00 37.59442 -9.38803 27391 ft 466 kts 194°
2026-05-07 13:01 37.56308 -9.39744 27657 ft 463 kts 201°
2026-05-07 13:01 37.53240 -9.40981 27914 ft 464 kts 204°
2026-05-07 13:01 37.50173 -9.42306 28193 ft 466 kts 204°
2026-05-07 13:01 37.47109 -9.43634 28495 ft 467 kts 204°
2026-05-07 13:02 37.44023 -9.44944 28774 ft 469 kts 204°
2026-05-07 13:02 37.40909 -9.46231 29047 ft 471 kts 203°
2026-05-07 13:02 37.37789 -9.47492 29319 ft 472 kts 203°
2026-05-07 13:02 37.34647 -9.48744 29569 ft 474 kts 203°
2026-05-07 13:03 37.31542 -9.49971 29811 ft 475 kts 203°
2026-05-07 13:03 37.28385 -9.51214 30060 ft 476 kts 203°
2026-05-07 13:03 37.25232 -9.52453 30337 ft 474 kts 203°
2026-05-07 13:03 37.22089 -9.53688 30682 ft 472 kts 203°
2026-05-07 13:04 37.18967 -9.54914 31034 ft 469 kts 203°
2026-05-07 13:04 37.15861 -9.56135 31365 ft 467 kts 204°
2026-05-07 13:04 37.12760 -9.57355 31689 ft 465 kts 204°
2026-05-07 13:04 37.09676 -9.58567 32011 ft 463 kts 204°
2026-05-07 13:05 37.06606 -9.59774 32331 ft 461 kts 204°
2026-05-07 13:05 37.03547 -9.60975 32670 ft 459 kts 204°
2026-05-07 13:05 37.00501 -9.62169 32984 ft 457 kts 204°
2026-05-07 13:05 36.97468 -9.63357 33302 ft 455 kts 204°
2026-05-07 13:06 36.94456 -9.64537 33623 ft 453 kts 205°
2026-05-07 13:06 36.91455 -9.65711 33956 ft 451 kts 205°
2026-05-07 13:06 36.88467 -9.66879 34203 ft 450 kts 205°
2026-05-07 13:06 36.85480 -9.68046 34393 ft 450 kts 205°
2026-05-07 13:07 36.82494 -9.69213 34564 ft 450 kts 205°
2026-05-07 13:07 36.79506 -9.70379 34782 ft 449 kts 205°
2026-05-07 13:07 36.73515 -9.72716 34928 ft 453 kts 205°
2026-05-07 13:08 36.67498 -9.75055 34956 ft 452 kts 204°
2026-05-07 13:08 36.61563 -9.77354 34961 ft 447 kts 205°
2026-05-07 13:09 36.55644 -9.79647 34965 ft 445 kts 205°
2026-05-07 13:09 36.49744 -9.81932 34968 ft 444 kts 204°
2026-05-07 13:10 36.43843 -9.84213 34975 ft 444 kts 204°
2026-05-07 13:10 36.37939 -9.86491 34978 ft 445 kts 204°
2026-05-07 13:11 36.32015 -9.88773 34972 ft 446 kts 204°
2026-05-07 13:11 36.26086 -9.91053 34970 ft 447 kts 204°
2026-05-07 13:12 36.20129 -9.93340 34966 ft 449 kts 204°
2026-05-07 13:12 36.14155 -9.95630 34978 ft 450 kts 204°
2026-05-07 13:13 36.08202 -9.97908 34972 ft 451 kts 204°
2026-05-07 13:13 36.02206 -10.00199 34975 ft 451 kts 204°
2026-05-07 13:14 35.96501 -10.03172 34980 ft 441 kts 214°
2026-05-07 13:14 35.91357 -10.07171 34977 ft 434 kts 222°
2026-05-07 13:15 35.86538 -10.11673 34979 ft 434 kts 223°
2026-05-07 13:15 35.81732 -10.16175 34979 ft 434 kts 222°
2026-05-07 13:16 35.76905 -10.20665 34979 ft 435 kts 222°
2026-05-07 13:16 35.72067 -10.25143 34979 ft 435 kts 222°
2026-05-07 13:17 35.67229 -10.29610 34983 ft 435 kts 222°
2026-05-07 13:17 35.62389 -10.34071 34984 ft 435 kts 222°
2026-05-07 13:18 35.57550 -10.38526 34985 ft 435 kts 222°
2026-05-07 13:18 35.52737 -10.42949 34989 ft 434 kts 222°
2026-05-07 13:19 35.47895 -10.47393 34985 ft 434 kts 222°
2026-05-07 13:19 35.43051 -10.51831 34985 ft 434 kts 222°
2026-05-07 13:20 35.38222 -10.56249 34988 ft 433 kts 222°
2026-05-07 13:20 35.33386 -10.60667 34983 ft 433 kts 222°
2026-05-07 13:21 35.28550 -10.65078 34990 ft 433 kts 221°
2026-05-07 13:21 35.23721 -10.69476 34992 ft 433 kts 221°
2026-05-07 13:22 35.18893 -10.73867 34990 ft 432 kts 221°
2026-05-07 13:22 35.14063 -10.78252 34991 ft 432 kts 221°
2026-05-07 13:23 35.09263 -10.82603 34994 ft 432 kts 221°
2026-05-07 13:23 35.04435 -10.86974 34995 ft 432 kts 221°
2026-05-07 13:24 34.99605 -10.91340 34997 ft 432 kts 221°
2026-05-07 13:24 34.94772 -10.95702 34996 ft 432 kts 221°
2026-05-07 13:25 34.89939 -11.00057 34997 ft 432 kts 221°
2026-05-07 13:25 34.85925 -11.03670 34999 ft 432 kts 221°
2026-05-07 13:26 34.80267 -11.08755 34993 ft 432 kts 221°
2026-05-07 13:26 34.76247 -11.12362 35001 ft 432 kts 221°
2026-05-07 13:27 34.71398 -11.16707 35001 ft 433 kts 221°
2026-05-07 13:27 34.66552 -11.21045 35000 ft 433 kts 221°
2026-05-07 13:28 34.61696 -11.25385 35000 ft 433 kts 221°
2026-05-07 13:28 34.56845 -11.29735 35004 ft 433 kts 221°
2026-05-07 13:29 34.52001 -11.34083 35005 ft 433 kts 221°
2026-05-07 13:29 34.47150 -11.38430 35006 ft 434 kts 221°
2026-05-07 13:30 34.42323 -11.42747 35007 ft 434 kts 221°
2026-05-07 13:30 34.37470 -11.47082 35007 ft 434 kts 221°
2026-05-07 13:31 34.32607 -11.51418 35008 ft 434 kts 220°
2026-05-07 13:31 34.27748 -11.55744 35006 ft 434 kts 220°
2026-05-07 13:32 34.22889 -11.60064 35006 ft 434 kts 220°
2026-05-07 13:32 34.18030 -11.64377 35000 ft 434 kts 220°
2026-05-07 13:33 34.13166 -11.68690 35019 ft 433 kts 220°
2026-05-07 13:33 34.08308 -11.72990 35009 ft 433 kts 220°
2026-05-07 13:34 34.01015 -11.79434 35010 ft 433 kts 220°
2026-05-07 13:35 33.96145 -11.83729 35007 ft 433 kts 220°
2026-05-07 13:35 33.91277 -11.88016 35008 ft 433 kts 220°
2026-05-07 13:36 33.86411 -11.92295 35012 ft 433 kts 220°
2026-05-07 13:36 33.81579 -11.96539 35009 ft 433 kts 220°
2026-05-07 13:37 33.76716 -12.00803 35008 ft 433 kts 220°
2026-05-07 13:37 33.71842 -12.05071 35006 ft 433 kts 220°
2026-05-07 13:38 33.66978 -12.09324 35010 ft 433 kts 220°
2026-05-07 13:38 33.62111 -12.13573 35011 ft 433 kts 220°
2026-05-07 13:39 33.57236 -12.17824 35013 ft 433 kts 220°
2026-05-07 13:39 33.52359 -12.22070 35010 ft 433 kts 220°
2026-05-07 13:40 33.47486 -12.26307 35013 ft 433 kts 220°
2026-05-07 13:40 33.42605 -12.30544 35012 ft 433 kts 220°
2026-05-07 13:41 33.37725 -12.34775 35013 ft 433 kts 220°
2026-05-07 13:41 33.32868 -12.38980 35015 ft 434 kts 220°
2026-05-07 13:42 33.27981 -12.43205 35012 ft 434 kts 220°
2026-05-07 13:42 33.23093 -12.47425 35014 ft 434 kts 220°
2026-05-07 13:43 33.18199 -12.51644 35011 ft 434 kts 220°
2026-05-07 13:43 33.13296 -12.55865 35016 ft 434 kts 220°
2026-05-07 13:44 33.08402 -12.60072 35016 ft 434 kts 220°
2026-05-07 13:44 33.03496 -12.64284 35019 ft 434 kts 220°
2026-05-07 13:45 32.98591 -12.68489 35020 ft 434 kts 220°
2026-05-07 13:45 32.93682 -12.72693 35024 ft 434 kts 220°
2026-05-07 13:46 32.88776 -12.76889 35014 ft 435 kts 220°
2026-05-07 13:46 32.83862 -12.81082 35014 ft 435 kts 219°
2026-05-07 13:47 32.78929 -12.85263 35007 ft 435 kts 219°
2026-05-07 13:47 32.73996 -12.89432 35025 ft 435 kts 219°
2026-05-07 13:48 32.69066 -12.93596 35021 ft 435 kts 219°
2026-05-07 13:48 32.64132 -12.97760 35019 ft 435 kts 219°
2026-05-07 13:49 32.59228 -13.01894 35023 ft 435 kts 219°
2026-05-07 13:49 32.54296 -13.06046 35022 ft 435 kts 219°
2026-05-07 13:50 32.49361 -13.10194 35024 ft 435 kts 219°
2026-05-07 13:50 32.44426 -13.14337 35026 ft 435 kts 219°
2026-05-07 13:51 32.39486 -13.18478 35028 ft 435 kts 219°
2026-05-07 13:51 32.34543 -13.22616 35024 ft 435 kts 219°
2026-05-07 13:52 32.29594 -13.26753 35028 ft 435 kts 219°
2026-05-07 13:52 32.24659 -13.30873 35028 ft 435 kts 219°
2026-05-07 13:53 32.19713 -13.34998 35029 ft 435 kts 219°
2026-05-07 13:53 32.14774 -13.39109 35025 ft 434 kts 219°
2026-05-07 13:54 32.09839 -13.43213 35030 ft 434 kts 219°
2026-05-07 13:54 32.04899 -13.47315 35028 ft 434 kts 219°
2026-05-07 13:55 31.99960 -13.51411 35030 ft 434 kts 219°
2026-05-07 13:55 31.95050 -13.55477 35032 ft 434 kts 219°
2026-05-07 13:56 31.90112 -13.59561 35031 ft 434 kts 219°
2026-05-07 13:56 31.85171 -13.63642 35032 ft 434 kts 219°
2026-05-07 13:57 31.80220 -13.67726 35033 ft 435 kts 219°
2026-05-07 13:57 31.75270 -13.71804 35033 ft 435 kts 219°
2026-05-07 13:58 31.70304 -13.75889 35036 ft 435 kts 219°
2026-05-07 13:58 31.65337 -13.79969 35037 ft 436 kts 219°
2026-05-07 13:59 31.60367 -13.84047 35040 ft 436 kts 219°
2026-05-07 13:59 31.55394 -13.88122 35043 ft 436 kts 219°
2026-05-07 14:00 31.50416 -13.92196 35037 ft 436 kts 219°
2026-05-07 14:00 31.45473 -13.96235 35035 ft 436 kts 219°
2026-05-07 14:01 31.40504 -14.00292 35041 ft 435 kts 219°
2026-05-07 14:01 31.35530 -14.04347 35040 ft 435 kts 219°
2026-05-07 14:02 31.30559 -14.08394 35042 ft 435 kts 219°
2026-05-07 14:02 31.25605 -14.12456 35045 ft 434 kts 219°
2026-05-07 14:03 31.20666 -14.16519 35040 ft 434 kts 219°
2026-05-07 14:03 31.15725 -14.20576 35044 ft 434 kts 219°
2026-05-07 14:04 31.10782 -14.24627 35040 ft 434 kts 219°
2026-05-07 14:04 31.05837 -14.28673 35041 ft 434 kts 219°
2026-05-07 14:05 31.00921 -14.32691 35044 ft 434 kts 220°
2026-05-07 14:05 30.95969 -14.36734 35042 ft 435 kts 220°
2026-05-07 14:06 30.90860 -14.40551 35035 ft 440 kts 213°
2026-05-07 14:06 30.85213 -14.43435 35040 ft 448 kts 205°
2026-05-07 14:07 30.79264 -14.45630 35040 ft 449 kts 204°
2026-05-07 14:07 30.73288 -14.47788 35040 ft 450 kts 204°
2026-05-07 14:08 30.67317 -14.49961 35034 ft 450 kts 204°
2026-05-07 14:08 30.61335 -14.52154 35039 ft 451 kts 204°
2026-05-07 14:09 30.55355 -14.54349 35040 ft 451 kts 204°
2026-05-07 14:09 30.49377 -14.56542 35037 ft 451 kts 204°
2026-05-07 14:10 30.43386 -14.58736 35039 ft 451 kts 204°
2026-05-07 14:10 30.37398 -14.60926 35036 ft 452 kts 204°
2026-05-07 14:11 30.31393 -14.63120 35037 ft 452 kts 204°
2026-05-07 14:11 30.25433 -14.65293 35037 ft 452 kts 204°
2026-05-07 14:12 30.19428 -14.67481 35040 ft 453 kts 204°
2026-05-07 14:12 30.13416 -14.69669 35036 ft 453 kts 204°
2026-05-07 14:13 30.07397 -14.71856 35036 ft 454 kts 204°
2026-05-07 14:13 30.01367 -14.74044 35037 ft 454 kts 204°
2026-05-07 14:14 29.95331 -14.76232 35035 ft 455 kts 204°
2026-05-07 14:14 29.90311 -14.78049 35035 ft 455 kts 204°
2026-05-07 14:15 29.84266 -14.80235 35038 ft 456 kts 204°
2026-05-07 14:15 29.78217 -14.82419 35037 ft 456 kts 204°
2026-05-07 14:16 29.72156 -14.84605 35035 ft 457 kts 204°
2026-05-07 14:16 29.66082 -14.86793 35042 ft 457 kts 204°
2026-05-07 14:17 29.60004 -14.88980 35036 ft 458 kts 205°
2026-05-07 14:17 29.53923 -14.91165 35032 ft 458 kts 204°
2026-05-07 14:18 29.47835 -14.93349 35035 ft 458 kts 204°
2026-05-07 14:18 29.41741 -14.95533 35032 ft 459 kts 204°
2026-05-07 14:19 29.35681 -14.97703 35031 ft 459 kts 204°
2026-05-07 14:19 29.29575 -14.99885 35030 ft 460 kts 205°
2026-05-07 14:20 29.23464 -15.02067 35034 ft 460 kts 204°
2026-05-07 14:20 29.17347 -15.04249 35027 ft 461 kts 204°
2026-05-07 14:21 29.11215 -15.06433 35031 ft 461 kts 204°
2026-05-07 14:21 29.05087 -15.08613 35032 ft 461 kts 204°
2026-05-07 14:22 28.98954 -15.10791 35028 ft 462 kts 204°
2026-05-07 14:22 28.92812 -15.12971 35029 ft 462 kts 204°
2026-05-07 14:23 28.86707 -15.15134 35025 ft 463 kts 204°
2026-05-07 14:23 28.80519 -15.17325 35025 ft 463 kts 204°
2026-05-07 14:24 28.74368 -15.19499 35025 ft 463 kts 204°
2026-05-07 14:24 28.68253 -15.21658 35025 ft 463 kts 204°
2026-05-07 14:25 28.62087 -15.23833 35022 ft 464 kts 204°
2026-05-07 14:25 28.55917 -15.26006 35021 ft 464 kts 204°
2026-05-07 14:26 28.49752 -15.28175 35020 ft 464 kts 204°
2026-05-07 14:26 28.43573 -15.30346 35020 ft 465 kts 204°
2026-05-07 14:27 28.37393 -15.32514 35016 ft 465 kts 204°
2026-05-07 14:27 28.31215 -15.34680 35019 ft 465 kts 204°
2026-05-07 14:28 28.25022 -15.36848 35015 ft 465 kts 204°
2026-05-07 14:28 28.18832 -15.39013 35013 ft 466 kts 204°
2026-05-07 14:29 28.12636 -15.41177 35027 ft 466 kts 204°
2026-05-07 14:29 28.06668 -15.43850 35029 ft 457 kts 213°
2026-05-07 14:30 28.01315 -15.47514 35032 ft 451 kts 220°
2026-05-07 14:30 27.96078 -15.51423 35022 ft 451 kts 220°
2026-05-07 14:31 27.90809 -15.55318 35020 ft 452 kts 219°
2026-05-07 14:31 27.85530 -15.59194 35005 ft 454 kts 219°
2026-05-07 14:32 27.80222 -15.63082 35002 ft 455 kts 219°
2026-05-07 14:32 27.74914 -15.66966 35006 ft 454 kts 219°
2026-05-07 14:33 27.69618 -15.70839 35007 ft 453 kts 219°
2026-05-07 14:33 27.64327 -15.74709 35012 ft 453 kts 219°
2026-05-07 14:34 27.59039 -15.78574 35012 ft 453 kts 219°
2026-05-07 14:34 27.53755 -15.82433 35014 ft 453 kts 219°
2026-05-07 14:35 27.48468 -15.86289 35013 ft 453 kts 219°
2026-05-07 14:35 27.43169 -15.90150 35016 ft 454 kts 219°
2026-05-07 14:36 27.37865 -15.94009 35016 ft 454 kts 219°
2026-05-07 14:36 27.32550 -15.97872 35019 ft 455 kts 219°
2026-05-07 14:37 27.27229 -16.01735 35019 ft 456 kts 219°
2026-05-07 14:37 27.19227 -16.07535 35017 ft 457 kts 219°
2026-05-07 14:38 27.13918 -16.11378 35016 ft 457 kts 219°
2026-05-07 14:38 27.08566 -16.15248 35018 ft 458 kts 219°
2026-05-07 14:39 27.03209 -16.19116 35017 ft 458 kts 219°
2026-05-07 14:39 26.97848 -16.22984 35016 ft 458 kts 219°
2026-05-07 14:40 26.92480 -16.26853 35018 ft 459 kts 219°
2026-05-07 14:40 26.87101 -16.30721 35055 ft 461 kts 219°
2026-05-07 14:41 26.84400 -16.32656 35231 ft 461 kts 219°
2026-05-07 14:41 26.81698 -16.34587 35499 ft 459 kts 219°
2026-05-07 14:41 26.79017 -16.36501 35763 ft 457 kts 219°
2026-05-07 14:41 26.76334 -16.38418 35920 ft 458 kts 219°
2026-05-07 14:42 26.70934 -16.42279 36015 ft 462 kts 219°
2026-05-07 14:42 26.65516 -16.46143 36009 ft 459 kts 219°
2026-05-07 14:43 26.60160 -16.49958 36013 ft 455 kts 219°
2026-05-07 14:43 26.54832 -16.53752 36009 ft 453 kts 219°
2026-05-07 14:44 26.49559 -16.57504 36029 ft 453 kts 219°
2026-05-07 14:44 26.44239 -16.61286 36008 ft 454 kts 219°
2026-05-07 14:45 26.38901 -16.65076 36016 ft 455 kts 219°
2026-05-07 14:45 26.33545 -16.68873 36015 ft 457 kts 219°
2026-05-07 14:46 26.28165 -16.72683 36017 ft 458 kts 218°
2026-05-07 14:46 26.22774 -16.76497 36018 ft 460 kts 218°
2026-05-07 14:47 26.17366 -16.80320 36011 ft 460 kts 218°
2026-05-07 14:47 26.11957 -16.84153 36012 ft 461 kts 218°
2026-05-07 14:48 26.06546 -16.87986 36015 ft 461 kts 218°
2026-05-07 14:48 26.01127 -16.91820 36013 ft 461 kts 218°
2026-05-07 14:49 25.95710 -16.95648 36013 ft 461 kts 218°
2026-05-07 14:49 25.90290 -16.99473 36013 ft 461 kts 218°
2026-05-07 14:50 25.84909 -17.03267 36011 ft 461 kts 218°
2026-05-07 14:50 25.79489 -17.07084 36011 ft 461 kts 218°
2026-05-07 14:51 25.74076 -17.10892 36010 ft 461 kts 218°
2026-05-07 14:51 25.68662 -17.14697 36011 ft 460 kts 218°
2026-05-07 14:52 25.63255 -17.18493 36011 ft 460 kts 218°
2026-05-07 14:52 25.57837 -17.22292 36007 ft 460 kts 218°
2026-05-07 14:53 25.52430 -17.26079 36010 ft 460 kts 218°
2026-05-07 14:53 25.47020 -17.29865 36011 ft 460 kts 218°
2026-05-07 14:54 25.41609 -17.33647 36010 ft 460 kts 218°
2026-05-07 14:54 25.36196 -17.37426 36007 ft 460 kts 218°
2026-05-07 14:55 25.30785 -17.41201 36009 ft 460 kts 218°
2026-05-07 14:55 25.25406 -17.44948 36006 ft 460 kts 217°
2026-05-07 14:56 25.19991 -17.48717 36011 ft 459 kts 217°
2026-05-07 14:56 25.14579 -17.52480 36009 ft 459 kts 217°
2026-05-07 14:57 25.09169 -17.56238 36008 ft 459 kts 217°
2026-05-07 14:57 25.03761 -17.59991 36007 ft 459 kts 217°
2026-05-07 14:58 24.98343 -17.63745 36004 ft 459 kts 217°
2026-05-07 14:58 24.92929 -17.67482 36008 ft 459 kts 217°
2026-05-07 14:59 24.87512 -17.71215 36006 ft 459 kts 217°
2026-05-07 14:59 24.82124 -17.74928 36008 ft 460 kts 217°
2026-05-07 15:00 24.76704 -17.78659 36019 ft 459 kts 217°
2026-05-07 15:00 24.71281 -17.82388 36018 ft 460 kts 217°
2026-05-07 15:01 24.65860 -17.86114 35992 ft 460 kts 217°
2026-05-07 15:01 24.60424 -17.89844 36006 ft 460 kts 217°
2026-05-07 15:02 24.54989 -17.93570 36004 ft 460 kts 217°
2026-05-07 15:02 24.49558 -17.97290 36002 ft 460 kts 217°
2026-05-07 15:03 24.44128 -18.01005 36002 ft 460 kts 217°
2026-05-07 15:03 24.39608 -18.04095 36007 ft 460 kts 217°
2026-05-07 15:04 24.34169 -18.07809 36002 ft 461 kts 216°
2026-05-07 15:04 24.28728 -18.11521 36002 ft 461 kts 216°
2026-05-07 15:05 24.23283 -18.15232 36005 ft 461 kts 216°
2026-05-07 15:05 24.17838 -18.18940 36005 ft 461 kts 216°
2026-05-07 15:06 24.12390 -18.22645 36004 ft 461 kts 216°
2026-05-07 15:06 24.06931 -18.26354 36004 ft 462 kts 216°
2026-05-07 15:07 24.01476 -18.30056 36003 ft 462 kts 216°
2026-05-07 15:07 23.96009 -18.33763 35999 ft 462 kts 216°
2026-05-07 15:08 23.90539 -18.37468 36001 ft 462 kts 216°
2026-05-07 15:08 23.85070 -18.41170 36002 ft 463 kts 216°
2026-05-07 15:09 23.79628 -18.44848 36002 ft 463 kts 216°
2026-05-07 15:09 23.74153 -18.48545 35996 ft 463 kts 216°
2026-05-07 15:10 23.68671 -18.52244 36003 ft 463 kts 216°
2026-05-07 15:10 23.63187 -18.55940 36005 ft 463 kts 216°
2026-05-07 15:11 23.57700 -18.59635 35999 ft 463 kts 216°
2026-05-07 15:11 23.52210 -18.63328 35996 ft 464 kts 216°
2026-05-07 15:12 23.46721 -18.67016 35998 ft 464 kts 216°
2026-05-07 15:12 23.41227 -18.70704 36001 ft 464 kts 216°
2026-05-07 15:13 23.35735 -18.74387 35997 ft 464 kts 215°
2026-05-07 15:13 23.30239 -18.78070 35989 ft 464 kts 215°
2026-05-07 15:14 23.24736 -18.81753 35991 ft 464 kts 215°
2026-05-07 15:14 23.19237 -18.85430 36000 ft 464 kts 215°
2026-05-07 15:15 23.13740 -18.89102 36003 ft 464 kts 215°
2026-05-07 15:15 23.08239 -18.92774 35997 ft 464 kts 215°
2026-05-07 15:16 23.02730 -18.96447 35996 ft 464 kts 215°
2026-05-07 15:16 22.97228 -19.00112 35995 ft 464 kts 215°
2026-05-07 15:17 22.91756 -19.03752 35993 ft 464 kts 215°
2026-05-07 15:17 22.86237 -19.07421 35993 ft 465 kts 215°
2026-05-07 15:18 22.80732 -19.11078 35997 ft 465 kts 215°
2026-05-07 15:18 22.75215 -19.14738 35997 ft 465 kts 215°
2026-05-07 15:19 22.69700 -19.18394 35997 ft 465 kts 215°
2026-05-07 15:19 22.64183 -19.22048 36000 ft 465 kts 215°
2026-05-07 15:20 22.58662 -19.25701 35996 ft 465 kts 215°
2026-05-07 15:20 22.53140 -19.29351 35995 ft 465 kts 215°
2026-05-07 15:21 22.47611 -19.33002 35996 ft 465 kts 215°
2026-05-07 15:21 22.42124 -19.36623 35992 ft 465 kts 215°
2026-05-07 15:22 22.36592 -19.40269 35991 ft 465 kts 215°
2026-05-07 15:22 22.31068 -19.43907 35993 ft 465 kts 214°
2026-05-07 15:23 22.25533 -19.47549 35991 ft 466 kts 214°
2026-05-07 15:23 22.20000 -19.51186 35992 ft 466 kts 214°
2026-05-07 15:24 22.14468 -19.54820 35988 ft 466 kts 214°
2026-05-07 15:24 22.08926 -19.58456 35991 ft 466 kts 214°
2026-05-07 15:25 22.03388 -19.62086 35986 ft 466 kts 214°
2026-05-07 15:25 21.97841 -19.65716 35989 ft 466 kts 214°
2026-05-07 15:26 21.92302 -19.69341 35991 ft 466 kts 214°
2026-05-07 15:26 21.86760 -19.72965 35991 ft 466 kts 214°
2026-05-07 15:27 21.81247 -19.76567 35992 ft 466 kts 214°
2026-05-07 15:27 21.75699 -19.80188 35991 ft 466 kts 214°
2026-05-07 15:28 21.70152 -19.83805 35990 ft 466 kts 214°
2026-05-07 15:28 21.64598 -19.87424 35991 ft 467 kts 214°
2026-05-07 15:29 21.59046 -19.91038 35991 ft 467 kts 214°
2026-05-07 15:29 21.53490 -19.94651 35987 ft 467 kts 214°
2026-05-07 15:30 21.47929 -19.98264 35988 ft 467 kts 214°
2026-05-07 15:30 21.42370 -20.01873 35989 ft 467 kts 214°
2026-05-07 15:31 21.36805 -20.05483 35983 ft 467 kts 214°
2026-05-07 15:31 21.31240 -20.09088 35985 ft 468 kts 214°
2026-05-07 15:32 21.25669 -20.12695 35987 ft 468 kts 214°
2026-05-07 15:32 21.20094 -20.16302 35984 ft 468 kts 214°
2026-05-07 15:33 21.14518 -20.19905 35986 ft 468 kts 214°
2026-05-07 15:33 21.08937 -20.23509 35985 ft 468 kts 214°
2026-05-07 15:34 21.03395 -20.27083 35987 ft 468 kts 214°
2026-05-07 15:34 20.97816 -20.30680 35987 ft 468 kts 214°
2026-05-07 15:35 20.92227 -20.34279 35985 ft 469 kts 214°
2026-05-07 15:35 20.86643 -20.37872 35984 ft 469 kts 214°
2026-05-07 15:36 20.81058 -20.41462 35987 ft 469 kts 214°
2026-05-07 15:36 20.75460 -20.45057 35985 ft 469 kts 214°
2026-05-07 15:37 20.69867 -20.48647 35983 ft 469 kts 214°
2026-05-07 15:37 20.64270 -20.52236 35986 ft 469 kts 214°
2026-05-07 15:38 20.58672 -20.55822 35986 ft 469 kts 214°
2026-05-07 15:38 20.53066 -20.59411 35986 ft 470 kts 214°
2026-05-07 15:39 20.47460 -20.62996 35981 ft 470 kts 214°
2026-05-07 15:39 20.41885 -20.66560 35985 ft 470 kts 214°
2026-05-07 15:40 20.36278 -20.70140 35984 ft 470 kts 214°
2026-05-07 15:40 20.30656 -20.73717 35985 ft 471 kts 214°
2026-05-07 15:41 20.25031 -20.77290 35983 ft 471 kts 214°
2026-05-07 15:41 20.19399 -20.80865 35985 ft 471 kts 214°
2026-05-07 15:42 20.13776 -20.84434 35984 ft 471 kts 214°
2026-05-07 15:42 20.08139 -20.88009 35987 ft 471 kts 214°
2026-05-07 15:43 20.02504 -20.91580 35982 ft 471 kts 214°
2026-05-07 15:43 19.96873 -20.95145 35983 ft 471 kts 214°
2026-05-07 15:44 19.91232 -20.98713 35981 ft 471 kts 214°
2026-05-07 15:44 19.85634 -21.02251 35982 ft 471 kts 214°
2026-05-07 15:45 19.79998 -21.05811 35983 ft 471 kts 214°
2026-05-07 15:45 19.74358 -21.09370 35982 ft 471 kts 213°
2026-05-07 15:46 19.65906 -21.14697 35981 ft 471 kts 213°
2026-05-07 15:47 19.60263 -21.18250 35979 ft 471 kts 213°
2026-05-07 15:47 19.54631 -21.21794 35976 ft 471 kts 213°
2026-05-07 15:48 19.48995 -21.25337 35985 ft 471 kts 213°
2026-05-07 15:48 19.43367 -21.28872 35985 ft 470 kts 213°
2026-05-07 15:49 19.37739 -21.32404 35984 ft 470 kts 213°
2026-05-07 15:49 19.32112 -21.35933 35983 ft 470 kts 213°
2026-05-07 15:50 19.26490 -21.39456 35982 ft 469 kts 213°
2026-05-07 15:50 19.21818 -21.42381 35978 ft 469 kts 213°
2026-05-07 15:51 19.16195 -21.45899 35984 ft 469 kts 213°
2026-05-07 15:51 19.09634 -21.50001 35981 ft 468 kts 213°
2026-05-07 15:52 19.04972 -21.52913 35977 ft 468 kts 213°
2026-05-07 15:52 18.99370 -21.56410 35981 ft 468 kts 213°
2026-05-07 15:53 18.92853 -21.60474 35983 ft 467 kts 213°
2026-05-07 15:53 18.88168 -21.63394 35979 ft 467 kts 213°
2026-05-07 15:54 18.82572 -21.66879 35980 ft 466 kts 213°
2026-05-07 15:54 18.76985 -21.70355 35983 ft 466 kts 213°
2026-05-07 15:55 18.71438 -21.73804 35984 ft 465 kts 213°
2026-05-07 15:55 18.65862 -21.77268 35983 ft 464 kts 213°
2026-05-07 15:56 18.60304 -21.80718 35981 ft 463 kts 213°
2026-05-07 15:56 18.54747 -21.84165 35979 ft 463 kts 213°
2026-05-07 15:57 18.49204 -21.87601 35980 ft 462 kts 213°
2026-05-07 15:57 18.43664 -21.91033 35980 ft 461 kts 213°
2026-05-07 15:58 18.38134 -21.94455 35982 ft 461 kts 213°
2026-05-07 15:58 18.32608 -21.97873 35982 ft 461 kts 213°
2026-05-07 15:59 18.27080 -22.01289 35981 ft 460 kts 213°
2026-05-07 15:59 18.21562 -22.04696 35977 ft 460 kts 213°
2026-05-07 16:00 18.16045 -22.08101 35979 ft 459 kts 213°
2026-05-07 16:00 18.10534 -22.11497 35980 ft 459 kts 213°
2026-05-07 16:01 18.05016 -22.14899 35988 ft 459 kts 213°
2026-05-07 16:01 17.99535 -22.18274 35987 ft 459 kts 213°
2026-05-07 16:02 17.94022 -22.21666 35981 ft 459 kts 213°
2026-05-07 16:02 17.88509 -22.25055 35981 ft 459 kts 213°
2026-05-07 16:03 17.83007 -22.28435 35981 ft 458 kts 214°
2026-05-07 16:03 17.77508 -22.31810 35980 ft 457 kts 214°
2026-05-07 16:04 17.72014 -22.35181 35976 ft 456 kts 214°
2026-05-07 16:04 17.66578 -22.38513 35978 ft 455 kts 214°
2026-05-07 16:05 17.61113 -22.41861 35977 ft 454 kts 214°
2026-05-07 16:05 17.55662 -22.45198 35974 ft 453 kts 214°
2026-05-07 16:06 17.50221 -22.48527 35980 ft 453 kts 214°
2026-05-07 16:06 17.44781 -22.51852 35976 ft 452 kts 214°
2026-05-07 16:07 17.39350 -22.55170 35980 ft 451 kts 214°
2026-05-07 16:07 17.33937 -22.58475 35976 ft 451 kts 214°
2026-05-07 16:08 17.28518 -22.61780 35975 ft 450 kts 214°
2026-05-07 16:08 17.23115 -22.65074 35978 ft 449 kts 214°
2026-05-07 16:09 17.17715 -22.68364 35980 ft 449 kts 214°
2026-05-07 16:09 17.12319 -22.71649 35969 ft 448 kts 214°
2026-05-07 16:10 17.06928 -22.74928 35970 ft 448 kts 215°
2026-05-07 16:10 17.01545 -22.78201 35983 ft 447 kts 215°
2026-05-07 16:11 16.96174 -22.81465 35981 ft 447 kts 215°
2026-05-07 16:11 16.90839 -22.84705 35976 ft 446 kts 215°
2026-05-07 16:12 16.85477 -22.87958 35971 ft 446 kts 215°
2026-05-07 16:12 16.80122 -22.91206 35965 ft 445 kts 215°
2026-05-07 16:13 16.74771 -22.94449 35963 ft 444 kts 215°
2026-05-07 16:13 16.69398 -22.97648 35969 ft 444 kts 214°
2026-05-07 16:14 16.63996 -23.00789 35966 ft 444 kts 214°
2026-05-07 16:14 16.58605 -23.03921 35967 ft 443 kts 214°
2026-05-07 16:15 16.53224 -23.07056 35972 ft 443 kts 214°
2026-05-07 16:15 16.47842 -23.10195 35972 ft 443 kts 214°
2026-05-07 16:16 16.42464 -23.13331 35973 ft 443 kts 214°
2026-05-07 16:16 16.37081 -23.16467 35971 ft 443 kts 214°
2026-05-07 16:17 16.31738 -23.19578 35972 ft 443 kts 214°
2026-05-07 16:17 16.26355 -23.22710 35971 ft 443 kts 214°
2026-05-07 16:18 16.20969 -23.25842 35972 ft 443 kts 214°
2026-05-07 16:18 16.15589 -23.28968 35971 ft 443 kts 214°
2026-05-07 16:19 16.10206 -23.32094 35972 ft 443 kts 214°
2026-05-07 16:19 16.04831 -23.35214 35969 ft 442 kts 214°
2026-05-07 16:20 15.99454 -23.38332 35969 ft 442 kts 214°
2026-05-07 16:20 15.94082 -23.41446 35970 ft 442 kts 214°
2026-05-07 16:21 15.88721 -23.44552 35974 ft 441 kts 214°
2026-05-07 16:21 15.83395 -23.47635 35962 ft 441 kts 214°
2026-05-07 16:22 15.78013 -23.50749 35966 ft 440 kts 214°
2026-05-07 16:22 15.72699 -23.53822 35961 ft 440 kts 215°
2026-05-07 16:23 15.67352 -23.56912 35965 ft 440 kts 215°
2026-05-07 16:23 15.62014 -23.59995 35965 ft 439 kts 215°
2026-05-07 16:24 15.56666 -23.63082 35963 ft 439 kts 215°
2026-05-07 16:24 15.51325 -23.66163 35963 ft 439 kts 215°
2026-05-07 16:25 15.45984 -23.69242 35962 ft 439 kts 215°
2026-05-07 16:25 15.40645 -23.72318 35960 ft 439 kts 215°
2026-05-07 16:26 15.35303 -23.75394 35964 ft 439 kts 215°
2026-05-07 16:26 15.29954 -23.78472 35963 ft 439 kts 215°
2026-05-07 16:27 15.24609 -23.81546 35962 ft 440 kts 215°
2026-05-07 16:27 15.19261 -23.84621 35961 ft 440 kts 215°
2026-05-07 16:28 15.13904 -23.87698 35964 ft 440 kts 215°
2026-05-07 16:28 15.08547 -23.90773 35964 ft 440 kts 214°
2026-05-07 16:29 15.03191 -23.93847 35961 ft 440 kts 214°
2026-05-07 16:29 14.97865 -23.96901 35961 ft 440 kts 214°
2026-05-07 16:30 14.92507 -23.99972 35963 ft 440 kts 214°
2026-05-07 16:30 14.87158 -24.03035 35963 ft 440 kts 214°
2026-05-07 16:31 14.81812 -24.06096 35962 ft 439 kts 214°
2026-05-07 16:31 14.76464 -24.09156 35966 ft 439 kts 214°
2026-05-07 16:32 14.71123 -24.12210 35959 ft 439 kts 214°
2026-05-07 16:32 14.65783 -24.15262 35962 ft 438 kts 214°
2026-05-07 16:33 14.60449 -24.18308 35957 ft 438 kts 214°
2026-05-07 16:33 14.55107 -24.21358 35959 ft 438 kts 214°
2026-05-07 16:34 14.49769 -24.24404 35960 ft 438 kts 214°
2026-05-07 16:34 14.44427 -24.27450 35957 ft 439 kts 214°
2026-05-07 16:35 14.39088 -24.30493 35958 ft 439 kts 214°
2026-05-07 16:35 14.33742 -24.33538 35956 ft 439 kts 214°
2026-05-07 16:36 14.28436 -24.36559 35954 ft 439 kts 214°
2026-05-07 16:36 14.23086 -24.39603 35953 ft 439 kts 214°
2026-05-07 16:37 14.17731 -24.42649 35957 ft 440 kts 214°
2026-05-07 16:37 14.12365 -24.45699 35956 ft 440 kts 214°
2026-05-07 16:38 14.07002 -24.48745 35953 ft 441 kts 214°
2026-05-07 16:38 14.01632 -24.51795 35955 ft 441 kts 214°
2026-05-07 16:39 13.96245 -24.54852 35957 ft 442 kts 214°
2026-05-07 16:39 13.91772 -24.57390 35955 ft 442 kts 214°
2026-05-07 16:40 13.85464 -24.60966 35995 ft 444 kts 214°
2026-05-07 16:40 13.82756 -24.62499 36187 ft 444 kts 214°
2026-05-07 16:40 13.80964 -24.63513 36371 ft 443 kts 214°
2026-05-07 16:40 13.78266 -24.65039 36636 ft 442 kts 214°
2026-05-07 16:41 13.75570 -24.66565 36849 ft 442 kts 214°
2026-05-07 16:41 13.72878 -24.68088 37051 ft 442 kts 214°
2026-05-07 16:41 13.70182 -24.69614 37235 ft 442 kts 214°
2026-05-07 16:41 13.67490 -24.71137 37445 ft 442 kts 214°
2026-05-07 16:42 13.64799 -24.72659 37648 ft 441 kts 214°
2026-05-07 16:42 13.62108 -24.74181 37831 ft 441 kts 214°
2026-05-07 16:42 13.59414 -24.75705 37902 ft 444 kts 214°
2026-05-07 16:43 13.53990 -24.78771 37949 ft 445 kts 214°
2026-05-07 16:43 13.48620 -24.81802 37947 ft 440 kts 214°
2026-05-07 16:44 13.43273 -24.84817 37947 ft 437 kts 214°
2026-05-07 16:44 13.37957 -24.87817 37949 ft 435 kts 214°
2026-05-07 16:45 13.32652 -24.90810 37954 ft 435 kts 214°
2026-05-07 16:45 13.27339 -24.93807 37953 ft 437 kts 214°
2026-05-07 16:46 13.21998 -24.96817 37954 ft 439 kts 214°
2026-05-07 16:46 13.16628 -24.99841 37953 ft 441 kts 214°
2026-05-07 16:47 13.11237 -25.02875 37954 ft 443 kts 214°
2026-05-07 16:47 13.05826 -25.05918 37954 ft 444 kts 214°
2026-05-07 16:48 13.00400 -25.08969 37947 ft 445 kts 214°
2026-05-07 16:48 12.94969 -25.12020 37945 ft 445 kts 214°
2026-05-07 16:49 12.89538 -25.15069 37943 ft 445 kts 214°
2026-05-07 16:49 12.84111 -25.18116 37946 ft 444 kts 214°
2026-05-07 16:50 12.78730 -25.21135 37952 ft 443 kts 214°
2026-05-07 16:50 12.73319 -25.24169 37951 ft 443 kts 214°
2026-05-07 16:51 12.67914 -25.27199 37948 ft 443 kts 214°
2026-05-07 16:51 12.62510 -25.30227 37948 ft 443 kts 214°
2026-05-07 16:52 12.57108 -25.33253 37947 ft 443 kts 213°
2026-05-07 16:52 12.51692 -25.36285 37949 ft 443 kts 213°
2026-05-07 16:53 12.46277 -25.39314 37947 ft 444 kts 213°
2026-05-07 16:53 12.40850 -25.42349 37951 ft 445 kts 213°
2026-05-07 16:54 12.35419 -25.45385 37948 ft 445 kts 213°
2026-05-07 16:54 12.29984 -25.48421 37947 ft 446 kts 213°
2026-05-07 16:55 12.24564 -25.51448 37950 ft 447 kts 213°
2026-05-07 16:55 12.19074 -25.54512 37947 ft 447 kts 213°
2026-05-07 16:56 12.13608 -25.57561 37947 ft 448 kts 213°
2026-05-07 16:56 12.05400 -25.62137 37951 ft 448 kts 213°
2026-05-07 16:57 11.99918 -25.65192 37948 ft 449 kts 213°
2026-05-07 16:57 11.94463 -25.68230 37944 ft 449 kts 213°
2026-05-07 16:58 11.88973 -25.71286 37950 ft 450 kts 213°
2026-05-07 16:58 11.83476 -25.74345 37944 ft 450 kts 213°
2026-05-07 16:59 11.77978 -25.77403 37946 ft 450 kts 213°
2026-05-07 16:59 11.72471 -25.80464 37945 ft 451 kts 213°
2026-05-07 17:00 11.66963 -25.83525 37942 ft 451 kts 213°
2026-05-07 17:00 11.61454 -25.86585 37947 ft 451 kts 213°
2026-05-07 17:01 11.55938 -25.89647 37946 ft 452 kts 213°
2026-05-07 17:01 11.50414 -25.92713 37945 ft 452 kts 213°
2026-05-07 17:02 11.44921 -25.95760 37946 ft 453 kts 213°
2026-05-07 17:02 11.39382 -25.98830 37945 ft 453 kts 213°
2026-05-07 17:03 11.33839 -26.01902 37944 ft 454 kts 212°
2026-05-07 17:03 11.28272 -26.04986 37944 ft 455 kts 212°
2026-05-07 17:04 11.22706 -26.08068 37946 ft 456 kts 212°
2026-05-07 17:04 11.17131 -26.11153 37945 ft 456 kts 212°
2026-05-07 17:05 11.11555 -26.14238 37942 ft 457 kts 212°
2026-05-07 17:05 11.05972 -26.17324 37942 ft 457 kts 212°
2026-05-07 17:06 11.00383 -26.20414 37938 ft 457 kts 212°
2026-05-07 17:06 10.94795 -26.23501 37939 ft 457 kts 212°
2026-05-07 17:07 10.89199 -26.26591 37939 ft 457 kts 212°
2026-05-07 17:07 10.83608 -26.29677 37938 ft 457 kts 212°
2026-05-07 17:08 10.78016 -26.32762 37938 ft 457 kts 212°
2026-05-07 17:08 10.72425 -26.35846 37943 ft 457 kts 212°
2026-05-07 17:09 10.66835 -26.38928 37939 ft 457 kts 212°
2026-05-07 17:09 10.61243 -26.42009 37935 ft 457 kts 211°
2026-05-07 17:10 10.55688 -26.45069 37940 ft 457 kts 211°
2026-05-07 17:10 10.50101 -26.48145 37938 ft 457 kts 211°
2026-05-07 17:11 10.44514 -26.51220 37939 ft 457 kts 211°
2026-05-07 17:11 10.38932 -26.54291 37942 ft 457 kts 211°
2026-05-07 17:12 10.33333 -26.57369 37941 ft 457 kts 211°
2026-05-07 17:12 10.27750 -26.60438 37940 ft 457 kts 211°
2026-05-07 17:13 10.22156 -26.63512 37941 ft 457 kts 211°
2026-05-07 17:13 10.16568 -26.66581 37938 ft 457 kts 211°
2026-05-07 17:14 10.10979 -26.69649 37937 ft 457 kts 210°
2026-05-07 17:14 10.05394 -26.72714 37933 ft 457 kts 210°
2026-05-07 17:15 9.99799 -26.75784 37933 ft 457 kts 210°
2026-05-07 17:15 9.94214 -26.78846 37931 ft 457 kts 210°
2026-05-07 17:16 9.88619 -26.81913 37933 ft 457 kts 210°
2026-05-07 17:16 9.83033 -26.84974 37930 ft 457 kts 210°
2026-05-07 17:17 9.77473 -26.88020 37934 ft 457 kts 210°
2026-05-07 17:17 9.71877 -26.91083 37926 ft 457 kts 210°
2026-05-07 17:18 9.66283 -26.94145 37926 ft 457 kts 210°
2026-05-07 17:18 9.60685 -26.97208 37930 ft 457 kts 210°
2026-05-07 17:19 9.55079 -27.00274 37928 ft 458 kts 210°
2026-05-07 17:19 9.49464 -27.03343 37928 ft 458 kts 210°
2026-05-07 17:20 9.43849 -27.06412 37929 ft 459 kts 210°
2026-05-07 17:20 9.38219 -27.09488 37926 ft 460 kts 210°
2026-05-07 17:21 9.32590 -27.12562 37927 ft 460 kts 210°
2026-05-07 17:21 9.26945 -27.15643 37928 ft 461 kts 210°
2026-05-07 17:22 9.21302 -27.18723 37931 ft 461 kts 210°
2026-05-07 17:22 9.15681 -27.21789 37926 ft 462 kts 210°
2026-05-07 17:23 9.10022 -27.24875 37926 ft 462 kts 210°
2026-05-07 17:23 9.04367 -27.27958 37927 ft 463 kts 210°
2026-05-07 17:24 8.98691 -27.31052 37924 ft 463 kts 210°
2026-05-07 17:24 8.93015 -27.34144 37924 ft 464 kts 210°
2026-05-07 17:25 8.87331 -27.37237 37923 ft 464 kts 210°
2026-05-07 17:25 8.81642 -27.40331 37925 ft 464 kts 210°
2026-05-07 17:26 8.75944 -27.43431 37926 ft 465 kts 210°
2026-05-07 17:26 8.70247 -27.46530 37926 ft 466 kts 210°
2026-05-07 17:27 8.64576 -27.49613 37924 ft 466 kts 210°
2026-05-07 17:27 8.58858 -27.52721 37922 ft 467 kts 210°
2026-05-07 17:28 8.53132 -27.55832 37926 ft 467 kts 210°
2026-05-07 17:28 8.47405 -27.58943 37926 ft 468 kts 210°
2026-05-07 17:29 8.41666 -27.62059 37922 ft 468 kts 210°
2026-05-07 17:29 8.35938 -27.65168 37922 ft 467 kts 210°
2026-05-07 17:30 8.31179 -27.67750 37922 ft 467 kts 210°
2026-05-07 17:30 8.25456 -27.70855 37922 ft 467 kts 210°
2026-05-07 17:31 8.19732 -27.73959 37924 ft 466 kts 210°
2026-05-07 17:31 8.14025 -27.77052 37918 ft 466 kts 210°
2026-05-07 17:32 8.08317 -27.80146 37924 ft 465 kts 210°
2026-05-07 17:32 8.02616 -27.83234 37922 ft 464 kts 210°
2026-05-07 17:33 7.96926 -27.86315 37920 ft 464 kts 210°
2026-05-07 17:33 7.91240 -27.89394 37922 ft 464 kts 210°
2026-05-07 17:34 7.85561 -27.92468 37920 ft 463 kts 210°
2026-05-07 17:34 7.79878 -27.95543 37917 ft 463 kts 210°
2026-05-07 17:35 7.74198 -27.98615 37922 ft 463 kts 210°
2026-05-07 17:35 7.68523 -28.01684 37919 ft 463 kts 210°
2026-05-07 17:36 7.62879 -28.04735 37917 ft 463 kts 210°
2026-05-07 17:36 7.57163 -28.07824 37915 ft 463 kts 210°
2026-05-07 17:37 7.51512 -28.10877 37918 ft 464 kts 210°
2026-05-07 17:37 7.45827 -28.13947 37918 ft 464 kts 209°
2026-05-07 17:38 7.40133 -28.17022 37914 ft 464 kts 210°
2026-05-07 17:38 7.34441 -28.20095 37918 ft 464 kts 209°
2026-05-07 17:39 7.28736 -28.23174 37917 ft 465 kts 209°
2026-05-07 17:39 7.23042 -28.26243 37911 ft 465 kts 209°
2026-05-07 17:40 7.17334 -28.29319 37908 ft 465 kts 209°
2026-05-07 17:40 7.11627 -28.32396 37928 ft 465 kts 209°
2026-05-07 17:41 7.05916 -28.35473 37928 ft 466 kts 209°
2026-05-07 17:41 7.00202 -28.38552 37910 ft 466 kts 209°
2026-05-07 17:42 6.94481 -28.41634 37908 ft 466 kts 209°
2026-05-07 17:42 6.88767 -28.44711 37926 ft 466 kts 209°
2026-05-07 17:43 6.83044 -28.47791 37927 ft 466 kts 209°
2026-05-07 17:43 6.77355 -28.50853 37925 ft 467 kts 209°
2026-05-07 17:44 6.71628 -28.53935 37917 ft 467 kts 209°
2026-05-07 17:44 6.65891 -28.57020 37902 ft 467 kts 209°
2026-05-07 17:45 6.60147 -28.60110 37915 ft 468 kts 209°
2026-05-07 17:45 6.54411 -28.63193 37916 ft 468 kts 209°
2026-05-07 17:46 6.48665 -28.66281 37918 ft 468 kts 209°
2026-05-07 17:46 6.42919 -28.69369 37907 ft 469 kts 209°
2026-05-07 17:47 6.37168 -28.72458 37918 ft 469 kts 209°
2026-05-07 17:47 6.31444 -28.75533 37914 ft 469 kts 208°
2026-05-07 17:48 6.25676 -28.78629 37916 ft 470 kts 208°
2026-05-07 17:48 6.19914 -28.81723 37916 ft 470 kts 208°
2026-05-07 17:49 6.14130 -28.84826 37908 ft 471 kts 208°
2026-05-07 17:49 6.08356 -28.87924 37910 ft 471 kts 208°
2026-05-07 17:50 6.02573 -28.91026 37915 ft 471 kts 208°
2026-05-07 17:50 5.96781 -28.94132 37908 ft 472 kts 208°
2026-05-07 17:51 5.91028 -28.97217 37911 ft 472 kts 208°
2026-05-07 17:51 5.85234 -29.00322 37910 ft 472 kts 208°
2026-05-07 17:52 5.79425 -29.03435 37908 ft 473 kts 208°
2026-05-07 17:52 5.73626 -29.06542 37911 ft 473 kts 208°
2026-05-07 17:53 5.67812 -29.09656 37906 ft 473 kts 208°
2026-05-07 17:53 5.62002 -29.12768 37906 ft 474 kts 208°
2026-05-07 17:54 5.56186 -29.15881 37904 ft 474 kts 208°
2026-05-07 17:54 5.50366 -29.18996 37900 ft 474 kts 208°
2026-05-07 17:55 5.44544 -29.22112 37909 ft 474 kts 208°
2026-05-07 17:55 5.38752 -29.25211 37904 ft 475 kts 208°
2026-05-07 17:56 5.32921 -29.28330 37902 ft 475 kts 208°
2026-05-07 17:56 5.27085 -29.31451 37893 ft 475 kts 208°
2026-05-07 17:57 5.22199 -29.34063 37904 ft 476 kts 208°
2026-05-07 17:57 5.15403 -29.37696 37901 ft 476 kts 208°
2026-05-07 17:58 5.09558 -29.40820 37906 ft 476 kts 208°
2026-05-07 17:58 5.03700 -29.43950 37896 ft 476 kts 208°
2026-05-07 17:59 4.97849 -29.47076 37903 ft 477 kts 208°
2026-05-07 17:59 4.91993 -29.50204 37902 ft 477 kts 208°
2026-05-07 18:00 4.86131 -29.53334 37896 ft 477 kts 208°
2026-05-07 18:00 4.80276 -29.56460 37905 ft 477 kts 208°
2026-05-07 18:01 4.74415 -29.59589 37903 ft 478 kts 208°
2026-05-07 18:01 4.68581 -29.62703 37887 ft 478 kts 208°
2026-05-07 18:02 4.59767 -29.67405 37897 ft 478 kts 208°
2026-05-07 18:03 4.53891 -29.70540 37897 ft 478 kts 208°
2026-05-07 18:03 4.48014 -29.73675 37898 ft 479 kts 208°
2026-05-07 18:04 4.42133 -29.76811 37900 ft 479 kts 208°
2026-05-07 18:04 4.36246 -29.79950 37901 ft 479 kts 208°
2026-05-07 18:05 4.30394 -29.83069 37904 ft 479 kts 208°
2026-05-07 18:05 4.24503 -29.86209 37900 ft 480 kts 208°
2026-05-07 18:06 4.18604 -29.89353 37898 ft 480 kts 208°
2026-05-07 18:06 4.12709 -29.92494 37896 ft 480 kts 208°
2026-05-07 18:07 4.06811 -29.95636 37896 ft 480 kts 208°
2026-05-07 18:07 4.00912 -29.98779 37898 ft 480 kts 208°
2026-05-07 18:08 3.95018 -30.01914 37893 ft 479 kts 208°
2026-05-07 18:08 3.89128 -30.05043 37900 ft 479 kts 208°
2026-05-07 18:09 3.83242 -30.08170 37897 ft 479 kts 207°
2026-05-07 18:09 3.77350 -30.11302 37896 ft 479 kts 207°
2026-05-07 18:10 3.71470 -30.14427 37895 ft 479 kts 207°
2026-05-07 18:10 3.65578 -30.17558 37899 ft 479 kts 207°
2026-05-07 18:11 3.59728 -30.20666 37896 ft 479 kts 207°
2026-05-07 18:11 3.53842 -30.23793 37897 ft 479 kts 207°
2026-05-07 18:12 3.47952 -30.26921 37894 ft 479 kts 207°
2026-05-07 18:12 3.42069 -30.30046 37900 ft 479 kts 207°
2026-05-07 18:13 3.36183 -30.33171 37894 ft 478 kts 207°
2026-05-07 18:13 3.30304 -30.36293 37894 ft 478 kts 207°
2026-05-07 18:14 3.24430 -30.39410 37896 ft 478 kts 207°
2026-05-07 18:14 3.18557 -30.42528 37896 ft 478 kts 207°
2026-05-07 18:15 3.12681 -30.45646 37894 ft 478 kts 207°
2026-05-07 18:15 3.06799 -30.48768 37899 ft 478 kts 207°
2026-05-07 18:16 3.00923 -30.51885 37896 ft 478 kts 208°
2026-05-07 18:16 2.95050 -30.55001 37895 ft 478 kts 208°
2026-05-07 18:17 2.89171 -30.58119 37890 ft 478 kts 208°
2026-05-07 18:17 2.83292 -30.61238 37891 ft 478 kts 208°
2026-05-07 18:18 2.77453 -30.64335 37893 ft 478 kts 208°
2026-05-07 18:18 2.71575 -30.67451 37884 ft 478 kts 208°
2026-05-07 18:19 2.65702 -30.70565 37893 ft 478 kts 208°
2026-05-07 18:19 2.59818 -30.73685 37902 ft 478 kts 208°
2026-05-07 18:20 2.54937 -30.76272 37896 ft 478 kts 208°
2026-05-07 18:20 2.49056 -30.79390 37891 ft 478 kts 208°
2026-05-07 18:21 2.43172 -30.82509 37897 ft 478 kts 207°
2026-05-07 18:21 2.37293 -30.85624 37894 ft 478 kts 207°
2026-05-07 18:22 2.31416 -30.88739 37894 ft 478 kts 207°
2026-05-07 18:22 2.25527 -30.91860 37898 ft 479 kts 207°
2026-05-07 18:23 2.19639 -30.94977 37900 ft 479 kts 207°
2026-05-07 18:23 2.13748 -30.98093 37902 ft 479 kts 207°
2026-05-07 18:24 2.07848 -31.01214 37896 ft 479 kts 208°
2026-05-07 18:24 2.01995 -31.04312 37896 ft 479 kts 207°
2026-05-07 18:25 1.96098 -31.07432 37896 ft 480 kts 207°
2026-05-07 18:25 1.90200 -31.10553 37899 ft 480 kts 207°
2026-05-07 18:26 1.84298 -31.13676 37894 ft 480 kts 208°
2026-05-07 18:26 1.78391 -31.16801 37890 ft 480 kts 208°
2026-05-07 18:27 1.72479 -31.19928 37893 ft 480 kts 208°
2026-05-07 18:27 1.66573 -31.23053 37895 ft 480 kts 208°
2026-05-07 18:28 1.60668 -31.26176 37900 ft 480 kts 208°
2026-05-07 18:28 1.54769 -31.29296 37898 ft 480 kts 208°
2026-05-07 18:29 1.48904 -31.32398 37894 ft 480 kts 208°
2026-05-07 18:29 1.43011 -31.35514 37898 ft 479 kts 208°
2026-05-07 18:30 1.37110 -31.38635 37898 ft 479 kts 208°
2026-05-07 18:30 1.31214 -31.41752 37899 ft 479 kts 208°
2026-05-07 18:31 1.25321 -31.44869 37899 ft 479 kts 208°
2026-05-07 18:31 1.19427 -31.47985 37900 ft 479 kts 208°
2026-05-07 18:32 1.13581 -31.51075 37896 ft 478 kts 208°
2026-05-07 18:32 1.07704 -31.54183 37901 ft 478 kts 208°
2026-05-07 18:33 1.01826 -31.57290 37897 ft 478 kts 208°
2026-05-07 18:33 0.95952 -31.60396 37898 ft 478 kts 208°
2026-05-07 18:34 0.90079 -31.63500 37902 ft 477 kts 208°
2026-05-07 18:34 0.84206 -31.66604 37902 ft 477 kts 208°
2026-05-07 18:35 0.78334 -31.69709 37894 ft 477 kts 208°
2026-05-07 18:35 0.72462 -31.72812 37903 ft 477 kts 208°
2026-05-07 18:36 0.66593 -31.75914 37898 ft 477 kts 208°
2026-05-07 18:36 0.60716 -31.79021 37900 ft 477 kts 208°
2026-05-07 18:37 0.54851 -31.82121 37894 ft 477 kts 208°
2026-05-07 18:37 0.48984 -31.85223 37897 ft 477 kts 208°
2026-05-07 18:38 0.43120 -31.88322 37894 ft 477 kts 208°
2026-05-07 18:38 0.37261 -31.91421 37901 ft 476 kts 208°
2026-05-07 18:39 0.31414 -31.94515 37901 ft 475 kts 208°
2026-05-07 18:39 0.25569 -31.97609 37900 ft 475 kts 208°
2026-05-07 18:40 0.19734 -32.00698 37893 ft 474 kts 208°
2026-05-07 18:40 0.13903 -32.03784 37897 ft 474 kts 208°
2026-05-07 18:41 0.08076 -32.06868 37899 ft 474 kts 208°
2026-05-07 18:41 0.02255 -32.09949 37896 ft 473 kts 208°
2026-05-07 18:42 -0.03528 -32.13010 37899 ft 473 kts 208°
2026-05-07 18:42 -0.09347 -32.16090 37899 ft 473 kts 208°
2026-05-07 18:43 -0.15162 -32.19168 37903 ft 473 kts 208°
2026-05-07 18:43 -0.20982 -32.22248 37899 ft 473 kts 208°
2026-05-07 18:44 -0.26793 -32.25324 37899 ft 473 kts 208°
2026-05-07 18:44 -0.32607 -32.28402 37894 ft 473 kts 208°
2026-05-07 18:45 -0.38421 -32.31479 37899 ft 473 kts 208°
2026-05-07 18:45 -0.44228 -32.34553 37899 ft 472 kts 208°
2026-05-07 18:46 -0.50034 -32.37626 37896 ft 472 kts 208°
2026-05-07 18:46 -0.55797 -32.40677 37898 ft 472 kts 208°
2026-05-07 18:47 -0.61593 -32.43745 37899 ft 471 kts 208°
2026-05-07 18:47 -0.67381 -32.46809 37897 ft 471 kts 208°
2026-05-07 18:48 -0.73169 -32.49873 37896 ft 470 kts 208°
2026-05-07 18:48 -0.78949 -32.52933 37888 ft 470 kts 208°
2026-05-07 18:49 -0.84737 -32.55998 37899 ft 471 kts 208°
2026-05-07 18:49 -0.90529 -32.59064 37900 ft 472 kts 208°
2026-05-07 18:50 -0.96348 -32.62145 37903 ft 473 kts 208°
2026-05-07 18:50 -1.02181 -32.65234 37899 ft 475 kts 208°
2026-05-07 18:51 -1.08033 -32.68332 37900 ft 476 kts 207°
2026-05-07 18:51 -1.13894 -32.71436 37903 ft 478 kts 207°
2026-05-07 18:52 -1.19773 -32.74550 37900 ft 478 kts 207°
2026-05-07 18:52 -1.25620 -32.77647 37902 ft 479 kts 207°
2026-05-07 18:53 -1.31509 -32.80767 37903 ft 479 kts 207°
2026-05-07 18:53 -1.37399 -32.83886 37900 ft 479 kts 207°
2026-05-07 18:54 -1.43288 -32.87004 37908 ft 479 kts 207°
2026-05-07 18:54 -1.49178 -32.90123 37905 ft 479 kts 207°
2026-05-07 18:55 -1.55067 -32.93243 37905 ft 479 kts 207°
2026-05-07 18:55 -1.60950 -32.96360 37904 ft 479 kts 207°
2026-05-07 18:56 -1.66841 -32.99482 37904 ft 479 kts 207°
2026-05-07 18:56 -1.72734 -33.02605 37909 ft 479 kts 208°
2026-05-07 18:57 -1.78625 -33.05727 37909 ft 480 kts 208°
2026-05-07 18:57 -1.84532 -33.08857 37909 ft 480 kts 208°
2026-05-07 18:58 -1.90433 -33.11985 37909 ft 481 kts 208°
2026-05-07 18:58 -1.96313 -33.15102 37913 ft 481 kts 208°
2026-05-07 18:59 -2.02225 -33.18236 37912 ft 481 kts 208°
2026-05-07 18:59 -2.08145 -33.21375 37908 ft 482 kts 208°
2026-05-07 19:00 -2.14069 -33.24516 37909 ft 482 kts 208°
2026-05-07 19:00 -2.19988 -33.27654 37914 ft 482 kts 208°
2026-05-07 19:01 -2.25915 -33.30798 37914 ft 482 kts 208°
2026-05-07 19:01 -2.31839 -33.33940 37916 ft 482 kts 208°
2026-05-07 19:02 -2.37760 -33.37081 37915 ft 482 kts 208°
2026-05-07 19:02 -2.43680 -33.40221 37911 ft 481 kts 208°
2026-05-07 19:03 -2.49595 -33.43359 37916 ft 481 kts 208°
2026-05-07 19:03 -2.55495 -33.46491 37911 ft 480 kts 208°
2026-05-07 19:04 -2.61393 -33.49621 37911 ft 479 kts 208°
2026-05-07 19:04 -2.67283 -33.52743 37916 ft 479 kts 208°
2026-05-07 19:05 -2.73175 -33.55854 37918 ft 478 kts 208°
2026-05-07 19:05 -2.79017 -33.58940 37920 ft 478 kts 208°
2026-05-07 19:06 -2.84892 -33.62046 37920 ft 478 kts 208°
2026-05-07 19:06 -2.93696 -33.66702 37920 ft 477 kts 208°
2026-05-07 19:07 -2.99575 -33.69812 37923 ft 478 kts 208°
2026-05-07 19:07 -3.05461 -33.72925 37922 ft 478 kts 208°
2026-05-07 19:08 -3.11344 -33.76037 37919 ft 479 kts 208°
2026-05-07 19:08 -3.17241 -33.79158 37919 ft 479 kts 208°
2026-05-07 19:09 -3.23143 -33.82281 37923 ft 480 kts 208°
2026-05-07 19:09 -3.28045 -33.84875 37923 ft 480 kts 208°
2026-05-07 19:10 -3.33954 -33.88003 37926 ft 481 kts 208°
2026-05-07 19:10 -3.39871 -33.91136 37922 ft 481 kts 208°
2026-05-07 19:11 -3.46739 -33.94773 37920 ft 481 kts 207°
2026-05-07 19:11 -3.52656 -33.97906 37924 ft 481 kts 207°
2026-05-07 19:12 -3.57611 -34.00532 37917 ft 481 kts 207°
2026-05-07 19:12 -3.63531 -34.03668 37922 ft 482 kts 207°
2026-05-07 19:13 -3.69419 -34.06792 37924 ft 483 kts 207°
2026-05-07 19:13 -3.75369 -34.09954 37925 ft 485 kts 207°
2026-05-07 19:14 -3.81352 -34.13135 37929 ft 489 kts 207°
2026-05-07 19:14 -3.87383 -34.16342 37930 ft 492 kts 207°
2026-05-07 19:15 -3.93456 -34.19570 37928 ft 496 kts 207°
2026-05-07 19:15 -3.99564 -34.22819 37927 ft 499 kts 207°
2026-05-07 19:16 -4.05701 -34.26084 37926 ft 500 kts 208°
2026-05-07 19:16 -4.11858 -34.29359 37923 ft 501 kts 208°
2026-05-07 19:17 -4.18000 -34.32627 37929 ft 499 kts 208°
2026-05-07 19:17 -4.24133 -34.35892 37928 ft 497 kts 208°
2026-05-07 19:18 -4.30183 -34.39112 37919 ft 495 kts 208°
2026-05-07 19:18 -4.36267 -34.42350 37923 ft 495 kts 208°
2026-05-07 19:19 -4.42357 -34.45593 37932 ft 498 kts 208°
2026-05-07 19:19 -4.48523 -34.48878 37935 ft 505 kts 208°
2026-05-07 19:20 -4.54764 -34.52203 37928 ft 509 kts 208°
2026-05-07 19:20 -4.60986 -34.55517 37926 ft 504 kts 208°
2026-05-07 19:21 -4.67154 -34.58804 37919 ft 500 kts 208°
2026-05-07 19:21 -4.73286 -34.62072 37923 ft 498 kts 208°
2026-05-07 19:22 -4.79398 -34.65331 37918 ft 497 kts 208°
2026-05-07 19:22 -4.85499 -34.68584 37925 ft 497 kts 208°
2026-05-07 19:23 -4.91617 -34.71847 37927 ft 499 kts 208°
2026-05-07 19:23 -4.97753 -34.75121 37925 ft 500 kts 208°
2026-05-07 19:24 -5.03916 -34.78409 37925 ft 502 kts 209°
2026-05-07 19:24 -5.10099 -34.81709 37923 ft 504 kts 209°
2026-05-07 19:25 -5.16260 -34.84998 37925 ft 505 kts 209°
2026-05-07 19:25 -5.22465 -34.88312 37923 ft 506 kts 209°
2026-05-07 19:26 -5.28687 -34.91636 37928 ft 507 kts 209°
2026-05-07 19:26 -5.34915 -34.94963 37943 ft 508 kts 209°
2026-05-07 19:27 -5.38031 -34.96629 38140 ft 507 kts 209°
2026-05-07 19:27 -5.41142 -34.98293 38471 ft 505 kts 209°
2026-05-07 19:27 -5.44233 -34.99948 38761 ft 503 kts 209°
2026-05-07 19:27 -5.47310 -35.01594 39068 ft 499 kts 210°
2026-05-07 19:28 -5.50366 -35.03230 39382 ft 496 kts 210°
2026-05-07 19:28 -5.53406 -35.04858 39666 ft 493 kts 210°
2026-05-07 19:28 -5.56430 -35.06477 39838 ft 494 kts 210°
2026-05-07 19:28 -5.59467 -35.08105 39876 ft 496 kts 210°
2026-05-07 19:29 -5.65566 -35.11372 39920 ft 497 kts 210°
2026-05-07 19:29 -5.71590 -35.14599 39908 ft 490 kts 210°
2026-05-07 19:30 -5.77588 -35.17813 39918 ft 487 kts 210°
2026-05-07 19:30 -5.83565 -35.21019 39916 ft 487 kts 210°
2026-05-07 19:31 -5.89532 -35.24219 39915 ft 486 kts 210°
2026-05-07 19:31 -5.95493 -35.27446 39913 ft 487 kts 211°
2026-05-07 19:32 -6.01444 -35.30717 39918 ft 488 kts 211°
2026-05-07 19:32 -6.07405 -35.33999 39919 ft 489 kts 211°
2026-05-07 19:33 -6.13381 -35.37283 39918 ft 490 kts 211°
2026-05-07 19:33 -6.19371 -35.40571 39927 ft 491 kts 211°
2026-05-07 19:34 -6.25370 -35.43864 39922 ft 491 kts 211°
2026-05-07 19:34 -6.31363 -35.47154 39925 ft 491 kts 211°
2026-05-07 19:35 -6.37348 -35.50442 39925 ft 490 kts 211°
2026-05-07 19:35 -6.43335 -35.53731 39929 ft 490 kts 211°
2026-05-07 19:36 -6.49310 -35.57016 39933 ft 489 kts 211°
2026-05-07 19:36 -6.55278 -35.60297 39936 ft 489 kts 211°
2026-05-07 19:37 -6.61200 -35.63554 39934 ft 488 kts 211°
2026-05-07 19:37 -6.67192 -35.66849 39945 ft 488 kts 211°
2026-05-07 19:38 -6.73147 -35.70126 39940 ft 488 kts 212°
2026-05-07 19:38 -6.79058 -35.73380 39945 ft 487 kts 212°
2026-05-07 19:39 -6.85005 -35.76654 39955 ft 487 kts 212°
2026-05-07 19:39 -6.90953 -35.79930 39955 ft 487 kts 212°
2026-05-07 19:40 -6.96908 -35.83210 39966 ft 487 kts 212°
2026-05-07 19:40 -7.02849 -35.86484 39976 ft 488 kts 212°
2026-05-07 19:41 -7.08805 -35.89767 39983 ft 487 kts 212°
2026-05-07 19:41 -7.14752 -35.93045 39990 ft 487 kts 212°
2026-05-07 19:42 -7.20696 -35.96323 39994 ft 487 kts 212°
2026-05-07 19:42 -7.26639 -35.99602 39992 ft 487 kts 212°
2026-05-07 19:43 -7.32575 -36.02878 39985 ft 487 kts 212°
2026-05-07 19:43 -7.38476 -36.06136 39982 ft 486 kts 212°
2026-05-07 19:44 -7.44402 -36.09408 39969 ft 486 kts 212°
2026-05-07 19:44 -7.50330 -36.12682 39958 ft 485 kts 212°
2026-05-07 19:45 -7.56245 -36.15950 39951 ft 484 kts 213°
2026-05-07 19:45 -7.62150 -36.19214 39951 ft 484 kts 213°
2026-05-07 19:46 -7.68052 -36.22477 39952 ft 483 kts 213°
2026-05-07 19:46 -7.73944 -36.25736 39954 ft 483 kts 213°
2026-05-07 19:47 -7.79829 -36.28992 39949 ft 482 kts 213°
2026-05-07 19:47 -7.85707 -36.32245 39954 ft 482 kts 213°
2026-05-07 19:48 -7.91582 -36.35497 39956 ft 481 kts 213°
2026-05-07 19:48 -7.97448 -36.38746 39958 ft 481 kts 213°
2026-05-07 19:49 -8.03316 -36.41997 39969 ft 481 kts 213°
2026-05-07 19:49 -8.09193 -36.45253 39962 ft 482 kts 213°
2026-05-07 19:50 -8.15063 -36.48508 39963 ft 482 kts 213°
2026-05-07 19:50 -8.20940 -36.51766 39975 ft 482 kts 213°
2026-05-07 19:51 -8.26823 -36.55029 39970 ft 483 kts 213°
2026-05-07 19:51 -8.32706 -36.58294 39971 ft 482 kts 213°
2026-05-07 19:52 -8.38587 -36.61559 39981 ft 482 kts 213°
2026-05-07 19:52 -8.44432 -36.64805 39969 ft 482 kts 213°
2026-05-07 19:53 -8.50305 -36.68066 39974 ft 482 kts 213°
2026-05-07 19:53 -8.56180 -36.71330 39981 ft 481 kts 213°
2026-05-07 19:54 -8.62046 -36.74592 39971 ft 481 kts 213°
2026-05-07 19:54 -8.67918 -36.77857 39971 ft 481 kts 213°
2026-05-07 19:55 -8.73777 -36.81116 39973 ft 481 kts 213°
2026-05-07 19:55 -8.79635 -36.84375 39971 ft 480 kts 213°
2026-05-07 19:56 -8.85488 -36.87634 39970 ft 480 kts 213°
2026-05-07 19:56 -8.91293 -36.90866 39970 ft 479 kts 213°
2026-05-07 19:57 -8.97126 -36.94116 39969 ft 478 kts 213°
2026-05-07 19:57 -9.02949 -36.97361 39965 ft 477 kts 213°
2026-05-07 19:58 -9.08758 -37.00600 39953 ft 476 kts 213°
2026-05-07 19:58 -9.14548 -37.03828 39968 ft 475 kts 213°
2026-05-07 19:59 -9.20333 -37.07056 39966 ft 475 kts 213°
2026-05-07 19:59 -9.26110 -37.10281 39970 ft 474 kts 213°
2026-05-07 20:00 -9.31883 -37.13504 39970 ft 473 kts 213°
2026-05-07 20:00 -9.36679 -37.16183 39970 ft 473 kts 213°
2026-05-07 20:01 -9.42446 -37.19405 39962 ft 473 kts 212°
2026-05-07 20:01 -9.48206 -37.22624 39965 ft 472 kts 212°
2026-05-07 20:02 -9.53957 -37.25840 39963 ft 472 kts 212°
2026-05-07 20:02 -9.59695 -37.29050 39961 ft 471 kts 212°
2026-05-07 20:03 -9.65432 -37.32260 39963 ft 470 kts 212°
2026-05-07 20:03 -9.71155 -37.35464 39963 ft 470 kts 212°
2026-05-07 20:04 -9.76870 -37.38664 39963 ft 469 kts 212°
2026-05-07 20:04 -9.82568 -37.41857 39961 ft 468 kts 212°
2026-05-07 20:05 -9.88225 -37.45028 39965 ft 467 kts 212°
2026-05-07 20:05 -9.93903 -37.48211 39967 ft 466 kts 212°
2026-05-07 20:06 -9.99565 -37.51387 39970 ft 465 kts 212°
2026-05-07 20:06 -10.05219 -37.54560 39972 ft 464 kts 212°
2026-05-07 20:07 -10.10864 -37.57729 39972 ft 463 kts 212°
2026-05-07 20:07 -10.16503 -37.60896 39974 ft 462 kts 212°
2026-05-07 20:08 -10.22126 -37.64055 39977 ft 462 kts 212°
2026-05-07 20:08 -10.27747 -37.67214 39974 ft 461 kts 212°
2026-05-07 20:09 -10.33352 -37.70366 39981 ft 461 kts 212°
2026-05-07 20:10 -10.41765 -37.75099 39983 ft 460 kts 212°
2026-05-07 20:10 -10.47368 -37.78252 39991 ft 460 kts 212°
2026-05-07 20:11 -10.52969 -37.81407 39977 ft 460 kts 212°
2026-05-07 20:11 -10.58538 -37.84544 39974 ft 461 kts 212°
2026-05-07 20:12 -10.64139 -37.87701 39999 ft 460 kts 212°
2026-05-07 20:12 -10.69746 -37.90862 39987 ft 460 kts 212°
2026-05-07 20:13 -10.75347 -37.94021 39984 ft 461 kts 212°
2026-05-07 20:13 -10.80954 -37.97185 40002 ft 460 kts 212°
2026-05-07 20:14 -10.86559 -38.00350 39994 ft 460 kts 213°
2026-05-07 20:14 -10.92156 -38.03511 39998 ft 460 kts 213°
2026-05-07 20:15 -10.97760 -38.06678 39991 ft 460 kts 213°
2026-05-07 20:15 -11.03355 -38.09840 40002 ft 460 kts 213°
2026-05-07 20:16 -11.08941 -38.12999 39996 ft 459 kts 213°
2026-05-07 20:16 -11.14521 -38.16156 39997 ft 459 kts 213°
2026-05-07 20:17 -11.20065 -38.19295 39998 ft 459 kts 213°
2026-05-07 20:17 -11.25647 -38.22456 40004 ft 458 kts 213°
2026-05-07 20:18 -11.31217 -38.25612 39998 ft 458 kts 213°
2026-05-07 20:18 -11.36785 -38.28768 39998 ft 457 kts 213°
2026-05-07 20:19 -11.42346 -38.31923 40002 ft 457 kts 213°
2026-05-07 20:19 -11.47888 -38.35077 40006 ft 455 kts 214°
2026-05-07 20:20 -11.53055 -38.38728 40006 ft 451 kts 220°
2026-05-07 20:20 -11.58027 -38.42613 40004 ft 450 kts 220°
2026-05-07 20:21 -11.62982 -38.46451 40006 ft 449 kts 220°
2026-05-07 20:21 -11.67967 -38.50287 40011 ft 449 kts 220°
2026-05-07 20:22 -11.72960 -38.54116 40008 ft 449 kts 220°
2026-05-07 20:22 -11.77956 -38.57920 40010 ft 448 kts 220°
2026-05-07 20:23 -11.82949 -38.61722 40013 ft 447 kts 220°
2026-05-07 20:23 -11.87934 -38.65524 40014 ft 447 kts 220°
2026-05-07 20:24 -11.92913 -38.69325 40015 ft 447 kts 220°
2026-05-07 20:24 -11.97881 -38.73121 40017 ft 446 kts 220°
2026-05-07 20:25 -12.02862 -38.76928 40009 ft 446 kts 219°
2026-05-07 20:25 -12.07829 -38.80726 40014 ft 446 kts 219°
2026-05-07 20:26 -12.12794 -38.84524 40016 ft 446 kts 219°
2026-05-07 20:26 -12.17768 -38.88330 40009 ft 446 kts 219°
2026-05-07 20:27 -12.22692 -38.92101 40011 ft 445 kts 219°
2026-05-07 20:27 -12.27652 -38.95901 40012 ft 445 kts 219°
2026-05-07 20:28 -12.32612 -38.99703 40016 ft 445 kts 219°
2026-05-07 20:28 -12.37565 -39.03501 40015 ft 445 kts 219°
2026-05-07 20:29 -12.42509 -39.07294 40018 ft 444 kts 219°
2026-05-07 20:29 -12.47456 -39.11092 40003 ft 444 kts 219°
2026-05-07 20:30 -12.52393 -39.14883 40008 ft 444 kts 219°
2026-05-07 20:30 -12.57335 -39.18681 40024 ft 444 kts 219°
2026-05-07 20:31 -12.62270 -39.22475 40023 ft 444 kts 219°
2026-05-07 20:31 -12.67197 -39.26286 40011 ft 444 kts 219°
2026-05-07 20:32 -12.72077 -39.30151 40012 ft 444 kts 220°
2026-05-07 20:32 -12.76919 -39.34001 40019 ft 444 kts 219°
2026-05-07 20:33 -12.81795 -39.37872 40022 ft 444 kts 219°
2026-05-07 20:33 -12.86682 -39.41746 40026 ft 444 kts 219°
2026-05-07 20:34 -12.91569 -39.45621 40027 ft 444 kts 219°
2026-05-07 20:34 -12.96451 -39.49495 40028 ft 444 kts 219°
2026-05-07 20:35 -13.01337 -39.53374 40033 ft 444 kts 219°
2026-05-07 20:35 -13.06224 -39.57256 40036 ft 444 kts 219°
2026-05-07 20:36 -13.11109 -39.61139 40042 ft 444 kts 219°
2026-05-07 20:36 -13.15999 -39.65026 40048 ft 444 kts 219°
2026-05-07 20:37 -13.20884 -39.68914 40055 ft 444 kts 219°
2026-05-07 20:37 -13.25768 -39.72802 40056 ft 445 kts 219°
2026-05-07 20:38 -13.30630 -39.76660 40057 ft 444 kts 218°
2026-05-07 20:38 -13.35549 -39.80511 40061 ft 445 kts 218°
2026-05-07 20:39 -13.40474 -39.84363 40058 ft 445 kts 218°
2026-05-07 20:39 -13.45391 -39.88220 40060 ft 445 kts 218°
2026-05-07 20:40 -13.50302 -39.92077 40064 ft 444 kts 218°
2026-05-07 20:40 -13.55211 -39.95934 40058 ft 444 kts 218°
2026-05-07 20:41 -13.60114 -39.99790 40060 ft 444 kts 218°
2026-05-07 20:41 -13.65012 -40.03663 40055 ft 443 kts 218°
2026-05-07 20:42 -13.69895 -40.07534 40059 ft 443 kts 218°
2026-05-07 20:42 -13.74780 -40.11407 40057 ft 443 kts 217°
2026-05-07 20:43 -13.79658 -40.15273 40051 ft 443 kts 217°
2026-05-07 20:43 -13.84536 -40.19143 40061 ft 442 kts 217°
2026-05-07 20:44 -13.89381 -40.22987 40052 ft 442 kts 217°
2026-05-07 20:44 -13.94252 -40.26856 40062 ft 442 kts 217°
2026-05-07 20:45 -13.99122 -40.30727 40056 ft 442 kts 217°
2026-05-07 20:45 -14.03988 -40.34595 40050 ft 442 kts 217°
2026-05-07 20:46 -14.08855 -40.38466 40049 ft 442 kts 217°
2026-05-07 20:46 -14.13719 -40.42340 40053 ft 442 kts 217°
2026-05-07 20:47 -14.18584 -40.46222 40048 ft 442 kts 217°
2026-05-07 20:47 -14.23451 -40.50108 40053 ft 443 kts 217°
2026-05-07 20:48 -14.28321 -40.53999 40047 ft 443 kts 217°
2026-05-07 20:48 -14.33189 -40.57890 40052 ft 442 kts 217°
2026-05-07 20:49 -14.38045 -40.61774 40052 ft 442 kts 217°
2026-05-07 20:49 -14.42863 -40.65630 40055 ft 441 kts 217°
2026-05-07 20:50 -14.47704 -40.69506 40056 ft 440 kts 217°
2026-05-07 20:50 -14.52533 -40.73375 40054 ft 439 kts 216°
2026-05-07 20:51 -14.56543 -40.76589 40060 ft 439 kts 216°
2026-05-07 20:51 -14.62174 -40.81106 40052 ft 439 kts 216°
2026-05-07 20:52 -14.66180 -40.84320 40055 ft 438 kts 216°
2026-05-07 20:52 -14.70992 -40.88184 40055 ft 438 kts 216°
2026-05-07 20:53 -14.75800 -40.92047 40058 ft 438 kts 216°
2026-05-07 20:53 -14.80608 -40.95911 40047 ft 438 kts 216°
2026-05-07 20:54 -14.85414 -40.99777 40055 ft 438 kts 216°
2026-05-07 20:54 -14.90217 -41.03642 40058 ft 438 kts 216°
2026-05-07 20:55 -14.95026 -41.07515 40051 ft 438 kts 216°
2026-05-07 20:55 -14.99834 -41.11389 40046 ft 438 kts 216°
2026-05-07 20:56 -15.04633 -41.15258 40054 ft 437 kts 216°
2026-05-07 20:56 -15.09433 -41.19130 40057 ft 437 kts 216°
2026-05-07 20:57 -15.14200 -41.22977 40059 ft 437 kts 216°
2026-05-07 20:57 -15.18992 -41.26847 40061 ft 437 kts 216°
2026-05-07 20:58 -15.23785 -41.30720 40059 ft 437 kts 216°
2026-05-07 20:58 -15.28575 -41.34593 40060 ft 436 kts 216°
2026-05-07 20:59 -15.33360 -41.38465 40060 ft 436 kts 216°
2026-05-07 20:59 -15.38110 -41.42310 40061 ft 436 kts 216°
2026-05-07 21:00 -15.42888 -41.46180 40060 ft 436 kts 216°
2026-05-07 21:00 -15.47662 -41.50050 40067 ft 435 kts 216°
2026-05-07 21:01 -15.52432 -41.53918 40072 ft 435 kts 216°
2026-05-07 21:01 -15.57200 -41.57787 40072 ft 435 kts 216°
2026-05-07 21:02 -15.61961 -41.61653 40065 ft 435 kts 216°
2026-05-07 21:02 -15.66731 -41.65528 40062 ft 435 kts 216°
2026-05-07 21:03 -15.71499 -41.69405 40062 ft 435 kts 216°
2026-05-07 21:03 -15.76261 -41.73278 40069 ft 435 kts 216°
2026-05-07 21:04 -15.80994 -41.77131 40059 ft 435 kts 216°
2026-05-07 21:04 -15.85754 -41.81008 40069 ft 435 kts 216°
2026-05-07 21:05 -15.90516 -41.84888 40061 ft 435 kts 216°
2026-05-07 21:05 -15.95277 -41.88771 40060 ft 435 kts 216°
2026-05-07 21:06 -16.00034 -41.92652 40060 ft 435 kts 216°
2026-05-07 21:06 -16.04788 -41.96534 40060 ft 434 kts 216°
2026-05-07 21:07 -16.09545 -42.00420 40056 ft 434 kts 216°
2026-05-07 21:07 -16.14291 -42.04301 40055 ft 434 kts 216°
2026-05-07 21:08 -16.19040 -42.08185 40055 ft 434 kts 216°
2026-05-07 21:08 -16.23752 -42.12043 40051 ft 434 kts 216°
2026-05-07 21:09 -16.28494 -42.15926 40046 ft 434 kts 216°
2026-05-07 21:09 -16.33246 -42.19821 40046 ft 434 kts 216°
2026-05-07 21:10 -16.37987 -42.23709 40045 ft 434 kts 216°
2026-05-07 21:10 -16.42731 -42.27603 40045 ft 434 kts 216°
2026-05-07 21:11 -16.47475 -42.31499 40046 ft 434 kts 216°
2026-05-07 21:11 -16.54578 -42.37337 40043 ft 433 kts 216°
2026-05-07 21:12 -16.59307 -42.41226 40039 ft 433 kts 216°
2026-05-07 21:12 -16.64047 -42.45119 40038 ft 433 kts 216°
2026-05-07 21:13 -16.68786 -42.49014 40036 ft 433 kts 216°
2026-05-07 21:13 -16.73517 -42.52909 40044 ft 433 kts 216°
2026-05-07 21:14 -16.78214 -42.56777 40035 ft 433 kts 216°
2026-05-07 21:14 -16.82946 -42.60678 40045 ft 433 kts 216°
2026-05-07 21:15 -16.87679 -42.64582 40038 ft 433 kts 216°
2026-05-07 21:15 -16.92403 -42.68481 40044 ft 433 kts 216°
2026-05-07 21:16 -16.97132 -42.72387 40046 ft 433 kts 216°
2026-05-07 21:16 -17.01860 -42.76295 40047 ft 433 kts 216°
2026-05-07 21:17 -17.06591 -42.80207 40050 ft 433 kts 216°
2026-05-07 21:17 -17.11318 -42.84119 40054 ft 433 kts 216°
2026-05-07 21:18 -17.16044 -42.88033 40052 ft 433 kts 216°
2026-05-07 21:18 -17.20737 -42.91922 40051 ft 433 kts 217°
2026-05-07 21:19 -17.25463 -42.95841 40053 ft 434 kts 217°
2026-05-07 21:19 -17.30195 -42.99768 40056 ft 434 kts 217°
2026-05-07 21:20 -17.34920 -43.03692 40045 ft 434 kts 217°
2026-05-07 21:20 -17.39648 -43.07621 40054 ft 434 kts 217°
2026-05-07 21:21 -17.44373 -43.11550 40055 ft 434 kts 217°
2026-05-07 21:21 -17.49095 -43.15480 40055 ft 433 kts 217°
2026-05-07 21:22 -17.53813 -43.19409 40056 ft 433 kts 217°
2026-05-07 21:22 -17.58529 -43.23341 40056 ft 433 kts 217°
2026-05-07 21:23 -17.63248 -43.27283 40057 ft 433 kts 217°
2026-05-07 21:23 -17.67930 -43.31197 40061 ft 433 kts 217°
2026-05-07 21:24 -17.72641 -43.35139 40061 ft 433 kts 217°
2026-05-07 21:24 -17.77354 -43.39084 40061 ft 433 kts 217°
2026-05-07 21:25 -17.82066 -43.43032 40066 ft 433 kts 217°
2026-05-07 21:25 -17.86770 -43.46976 40067 ft 433 kts 217°
2026-05-07 21:26 -17.91483 -43.50929 40074 ft 433 kts 217°
2026-05-07 21:26 -17.96181 -43.54874 40068 ft 432 kts 217°
2026-05-07 21:27 -18.00855 -43.58801 40082 ft 432 kts 217°
2026-05-07 21:27 -18.05552 -43.62751 40080 ft 432 kts 217°
2026-05-07 21:28 -18.10245 -43.66699 40088 ft 432 kts 217°
2026-05-07 21:28 -18.14941 -43.70660 40082 ft 432 kts 217°
2026-05-07 21:29 -18.19624 -43.74619 40083 ft 432 kts 217°
2026-05-07 21:29 -18.24305 -43.78579 40081 ft 432 kts 218°
2026-05-07 21:30 -18.28982 -43.82539 40081 ft 432 kts 218°
2026-05-07 21:30 -18.33664 -43.86504 40076 ft 432 kts 218°
2026-05-07 21:31 -18.38348 -43.90458 40062 ft 432 kts 218°
2026-05-07 21:31 -18.43037 -43.94402 40066 ft 431 kts 217°
2026-05-07 21:32 -18.47718 -43.98344 40060 ft 431 kts 217°
2026-05-07 21:32 -18.52368 -44.02264 40053 ft 431 kts 218°
2026-05-07 21:33 -18.57052 -44.06218 40047 ft 431 kts 218°
2026-05-07 21:33 -18.61724 -44.10164 40043 ft 430 kts 218°
2026-05-07 21:34 -18.66392 -44.14110 40037 ft 430 kts 218°
2026-05-07 21:34 -18.71054 -44.18054 40036 ft 429 kts 218°
2026-05-07 21:35 -18.75713 -44.21999 40033 ft 429 kts 218°
2026-05-07 21:35 -18.80365 -44.25943 40030 ft 429 kts 218°
2026-05-07 21:36 -18.85004 -44.29912 40030 ft 429 kts 218°
2026-05-07 21:36 -18.89636 -44.33883 40031 ft 429 kts 218°
2026-05-07 21:37 -18.94240 -44.37830 40031 ft 429 kts 218°
2026-05-07 21:37 -18.98872 -44.41802 40029 ft 429 kts 218°
2026-05-07 21:38 -19.03511 -44.45765 40030 ft 429 kts 218°
2026-05-07 21:38 -19.08156 -44.49719 40034 ft 429 kts 218°
2026-05-07 21:39 -19.12796 -44.53674 40035 ft 428 kts 218°
2026-05-07 21:39 -19.17429 -44.57629 40030 ft 428 kts 218°
2026-05-07 21:40 -19.22067 -44.61593 40036 ft 428 kts 218°
2026-05-07 21:40 -19.26701 -44.65555 40032 ft 428 kts 218°
2026-05-07 21:41 -19.31331 -44.69517 40033 ft 428 kts 218°
2026-05-07 21:41 -19.35956 -44.73479 40033 ft 428 kts 218°
2026-05-07 21:42 -19.40553 -44.77422 40036 ft 428 kts 218°
2026-05-07 21:42 -19.45175 -44.81389 40030 ft 428 kts 218°
2026-05-07 21:43 -19.49800 -44.85362 40035 ft 428 kts 218°
2026-05-07 21:43 -19.53668 -44.88686 40032 ft 427 kts 218°
2026-05-07 21:44 -19.58248 -44.92633 40040 ft 427 kts 218°
2026-05-07 21:44 -19.62857 -44.96610 40034 ft 426 kts 219°
2026-05-07 21:45 -19.67456 -45.00583 40034 ft 427 kts 219°
2026-05-07 21:45 -19.72057 -45.04560 40021 ft 426 kts 219°
2026-05-07 21:46 -19.76653 -45.08536 40035 ft 426 kts 219°
2026-05-07 21:46 -19.81249 -45.12515 40038 ft 426 kts 219°
2026-05-07 21:47 -19.85845 -45.16496 40029 ft 426 kts 219°
2026-05-07 21:47 -19.90445 -45.20467 40040 ft 426 kts 219°
2026-05-07 21:48 -19.95018 -45.24412 40046 ft 426 kts 219°
2026-05-07 21:48 -19.99622 -45.28390 40042 ft 426 kts 219°
2026-05-07 21:49 -20.04220 -45.32367 40031 ft 426 kts 219°
2026-05-07 21:49 -20.08819 -45.36349 40039 ft 426 kts 219°
2026-05-07 21:50 -20.13410 -45.40337 40048 ft 426 kts 219°
2026-05-07 21:50 -20.17978 -45.44348 40037 ft 426 kts 219°
2026-05-07 21:51 -20.22546 -45.48365 40049 ft 426 kts 219°
2026-05-07 21:51 -20.27119 -45.52385 40036 ft 426 kts 219°
2026-05-07 21:52 -20.31686 -45.56400 40048 ft 426 kts 219°
2026-05-07 21:52 -20.36273 -45.60405 40037 ft 426 kts 219°
2026-05-07 21:53 -20.40832 -45.64380 40048 ft 426 kts 219°
2026-05-07 21:53 -20.45420 -45.68387 40038 ft 426 kts 219°
2026-05-07 21:54 -20.49999 -45.72392 40038 ft 426 kts 219°
2026-05-07 21:54 -20.54580 -45.76403 40041 ft 426 kts 219°
2026-05-07 21:55 -20.59161 -45.80418 40037 ft 426 kts 219°
2026-05-07 21:55 -20.63733 -45.84427 40040 ft 426 kts 219°
2026-05-07 21:56 -20.68310 -45.88445 40057 ft 426 kts 219°
2026-05-07 21:56 -20.72889 -45.92466 40038 ft 426 kts 220°
2026-05-07 21:57 -20.77455 -45.96491 40047 ft 425 kts 220°
2026-05-07 21:57 -20.81988 -46.00494 40045 ft 425 kts 220°
2026-05-07 21:58 -20.86552 -46.04526 40053 ft 426 kts 220°
2026-05-07 21:58 -20.91120 -46.08564 40037 ft 425 kts 220°
2026-05-07 21:59 -20.95805 -46.12419 40050 ft 425 kts 213°
2026-05-07 21:59 -21.01028 -46.15411 40048 ft 427 kts 206°
2026-05-07 22:00 -21.06639 -46.17562 40058 ft 429 kts 200°
2026-05-07 22:00 -21.12337 -46.19504 40047 ft 430 kts 201°
2026-05-07 22:01 -21.18026 -46.21501 40046 ft 431 kts 200°
2026-05-07 22:01 -21.23740 -46.23444 40049 ft 431 kts 200°
2026-05-07 22:02 -21.29471 -46.25380 40047 ft 431 kts 200°
2026-05-07 22:02 -21.35193 -46.27323 40047 ft 431 kts 200°
2026-05-07 22:03 -21.40914 -46.29271 40051 ft 431 kts 200°
2026-05-07 22:03 -21.46628 -46.31217 40052 ft 431 kts 200°
2026-05-07 22:04 -21.52342 -46.33169 40054 ft 430 kts 200°
2026-05-07 22:04 -21.58043 -46.35116 40053 ft 430 kts 200°
2026-05-07 22:05 -21.63742 -46.37063 40055 ft 429 kts 200°
2026-05-07 22:05 -21.69422 -46.39058 39762 ft 434 kts 201°
2026-05-07 22:06 -21.72291 -46.40114 39089 ft 435 kts 202°
2026-05-07 22:06 -21.75109 -46.41160 38367 ft 433 kts 202°
2026-05-07 22:06 -21.77955 -46.42216 37582 ft 431 kts 202°
2026-05-07 22:06 -21.80778 -46.43261 36813 ft 429 kts 201°
2026-05-07 22:07 -21.83607 -46.44304 36079 ft 428 kts 201°
2026-05-07 22:07 -21.86420 -46.45340 35254 ft 429 kts 201°
2026-05-07 22:07 -21.89262 -46.46388 34388 ft 432 kts 201°
2026-05-07 22:07 -21.92124 -46.47444 33363 ft 438 kts 201°
2026-05-07 22:08 -21.95006 -46.48506 32614 ft 437 kts 201°
2026-05-07 22:08 -21.97869 -46.49560 31938 ft 434 kts 201°
2026-05-07 22:08 -22.00718 -46.50609 31290 ft 431 kts 200°
2026-05-07 22:08 -22.03550 -46.51652 30685 ft 428 kts 200°
2026-05-07 22:09 -22.06362 -46.52689 30082 ft 427 kts 200°
2026-05-07 22:09 -22.09179 -46.53728 29372 ft 432 kts 200°
2026-05-07 22:09 -22.12054 -46.54790 28685 ft 439 kts 200°
2026-05-07 22:09 -22.14940 -46.55857 28004 ft 436 kts 200°
2026-05-07 22:10 -22.17793 -46.56910 27361 ft 431 kts 200°
2026-05-07 22:10 -22.20611 -46.57950 26724 ft 427 kts 200°
2026-05-07 22:10 -22.23409 -46.58985 26103 ft 423 kts 200°
2026-05-07 22:10 -22.26149 -46.59999 25502 ft 420 kts 201°
2026-05-07 22:11 -22.28903 -46.61018 24888 ft 417 kts 200°
2026-05-07 22:11 -22.31643 -46.62035 24285 ft 416 kts 201°
2026-05-07 22:11 -22.34373 -46.63046 23689 ft 414 kts 201°
2026-05-07 22:11 -22.37095 -46.64054 23012 ft 413 kts 200°
2026-05-07 22:12 -22.39790 -46.65074 22388 ft 405 kts 204°
2026-05-07 22:12 -22.42197 -46.66594 21829 ft 399 kts 221°
2026-05-07 22:12 -22.44075 -46.68790 21347 ft 401 kts 233°
2026-05-07 22:12 -22.45774 -46.71238 20843 ft 411 kts 234°
2026-05-07 22:13 -22.47554 -46.73649 20026 ft 409 kts 226°
2026-05-07 22:13 -22.49735 -46.75503 19287 ft 393 kts 212°
2026-05-07 22:13 -22.52189 -46.76904 18651 ft 409 kts 204°
2026-05-07 22:13 -22.54890 -46.77963 17939 ft 416 kts 198°
2026-05-07 22:14 -22.57654 -46.78902 17222 ft 417 kts 197°
2026-05-07 22:14 -22.60417 -46.79816 16562 ft 415 kts 197°
2026-05-07 22:14 -22.63177 -46.80731 15905 ft 414 kts 197°
2026-05-07 22:14 -22.65918 -46.81650 15257 ft 412 kts 197°
2026-05-07 22:15 -22.68657 -46.82579 14602 ft 412 kts 197°
2026-05-07 22:15 -22.71385 -46.83512 13953 ft 411 kts 198°
2026-05-07 22:15 -22.74113 -46.84449 13231 ft 407 kts 198°
2026-05-07 22:15 -22.76661 -46.85326 12571 ft 376 kts 198°
2026-05-07 22:16 -22.79047 -46.86148 11984 ft 348 kts 198°
2026-05-07 22:16 -22.81226 -46.86899 11469 ft 326 kts 199°
2026-05-07 22:16 -22.83321 -46.87621 10985 ft 307 kts 199°
2026-05-07 22:16 -22.85308 -46.88307 10525 ft 295 kts 199°
2026-05-07 22:17 -22.87284 -46.88990 10091 ft 300 kts 199°
2026-05-07 22:17 -22.89295 -46.89686 9568 ft 306 kts 199°
2026-05-07 22:17 -22.91336 -46.90392 9067 ft 311 kts 199°
2026-05-07 22:17 -22.93403 -46.91107 8714 ft 310 kts 199°
2026-05-07 22:18 -22.95446 -46.91813 8450 ft 306 kts 199°
2026-05-07 22:18 -22.99393 -46.93176 8129 ft 290 kts 199°
2026-05-07 22:18 -23.01289 -46.93835 8012 ft 279 kts 201°
2026-05-07 22:19 -23.02929 -46.94796 7900 ft 261 kts 221°
2026-05-07 22:19 -23.04306 -46.96023 7826 ft 251 kts 221°
2026-05-07 22:19 -23.05637 -46.97176 7757 ft 240 kts 221°
2026-05-07 22:19 -23.06909 -46.98264 7728 ft 226 kts 220°
2026-05-07 22:20 -23.08094 -46.99320 7604 ft 212 kts 231°
2026-05-07 22:20 -23.08719 -47.00679 7340 ft 198 kts 266°
2026-05-07 22:20 -23.08599 -47.02115 7068 ft 186 kts 290°
2026-05-07 22:20 -23.08028 -47.03294 6884 ft 169 kts 311°
2026-05-07 22:21 -23.07327 -47.04262 6675 ft 159 kts 311°
2026-05-07 22:21 -23.06653 -47.05204 6206 ft 159 kts 311°
2026-05-07 22:21 -23.05964 -47.06162 5610 ft 164 kts 311°
2026-05-07 22:21 -23.05252 -47.07154 5013 ft 170 kts 311°
2026-05-07 22:22 -23.04500 -47.08199 4302 ft 178 kts 311°
2026-05-07 22:22 -23.03768 -47.09220 3678 ft 177 kts 310°
2026-05-07 22:22 -23.03025 -47.10258 3063 ft 173 kts 310°
2026-05-07 22:22 -23.02464 -47.11038 2868 ft 173 kts 310°
2026-05-07 22:23 -23.02149 -47.11479 2745 ft 167 kts 309°
2026-05-07 22:23 -23.01454 -47.12458 2201 ft 153 kts 310°
2026-05-07 22:23 -23.00863 -47.13277 2160 ft 120 kts 308°
2026-05-07 22:24 -23.00466 -47.13834 2156 ft 67 kts 308°
2026-05-07 22:24 -23.00223 -47.14173 2154 ft 53 kts 308°
2026-05-07 22:24 -23.00020 -47.14457 2154 ft 36 kts 308°
2026-05-07 22:24 -22.99968 -47.14594 2156 ft 16 kts 261°
2026-05-07 22:25 -23.00016 -47.14677 2155 ft 10 kts 220°
2026-05-07 22:25 -23.00047 -47.14705 2153 ft 6 kts 219°
2026-05-07 22:25 -23.00081 -47.14726 2156 ft 6 kts 201°
2026-05-07 22:25 -23.00121 -47.14728 2154 ft 6 kts 179°
2026-05-07 22:26 -23.00162 -47.14721 2156 ft 6 kts 161°
2026-05-07 22:26 -23.00193 -47.14689 2157 ft 6 kts 129°
2026-05-07 22:26 -23.00220 -47.14652 2153 ft 5 kts 129°
2026-05-07 22:26 -23.00233 -47.14631 2155 ft 4 kts 110°
2026-05-07 22:27 -23.00225 -47.14602 2156 ft 4 kts 54°
2026-05-07 22:27 -23.00181 -47.14578 2157 ft 9 kts 357°
2026-05-07 22:27 -23.00132 -47.14616 2156 ft 9 kts 313°
2026-05-07 22:27 -23.00095 -47.14669 2153 ft 9 kts 307°
2026-05-07 22:28 -23.00057 -47.14722 2157 ft 9 kts 308°
2026-05-07 22:28 -23.00019 -47.14775 2155 ft 9 kts 305°
2026-05-07 22:28 -23.00013 -47.14840 2158 ft 9 kts 257°
2026-05-07 22:28 -23.00051 -47.14894 2159 ft 9 kts 221°
2026-05-07 22:29 -23.00101 -47.14936 2155 ft 9 kts 218°
2026-05-07 22:29 -23.00152 -47.14978 2155 ft 9 kts 217°
2026-05-07 22:29 -23.00202 -47.15021 2155 ft 9 kts 218°
2026-05-07 22:29 -23.00252 -47.15064 2153 ft 9 kts 218°
2026-05-07 22:30 -23.00302 -47.15107 2153 ft 9 kts 218°
2026-05-07 22:30 -23.00351 -47.15150 2154 ft 9 kts 218°
2026-05-07 22:30 -23.00395 -47.15188 2155 ft 9 kts 217°
2026-05-07 22:30 -23.00453 -47.15233 2156 ft 13 kts 218°
2026-05-07 22:31 -23.00545 -47.15311 2153 ft 20 kts 218°
2026-05-07 22:31 -23.00630 -47.15382 2155 ft 3 kts 218°
2026-05-07 22:31 -23.00647 -47.15390 2155 ft 3 kts 189°
2026-05-07 22:31 -23.00670 -47.15383 2153 ft 4 kts 156°
2026-05-07 22:32 -23.00699 -47.15361 2157 ft 8 kts 137°
2026-05-07 22:32 -23.00741 -47.15305 2154 ft 10 kts 127°
2026-05-07 22:32 -23.00782 -47.15246 2154 ft 10 kts 127°
2026-05-07 22:32 -23.00818 -47.15188 2155 ft 7 kts 124°
2026-05-07 22:33 -23.00838 -47.15159 2154 ft 2 kts 127°
2026-05-07 22:33 -23.00845 -47.15149 2153 ft 2 kts 128°
2026-05-07 22:33 -23.00851 -47.15141 2153 ft 1 kts 128°
2026-05-07 22:33 -23.00854 -47.15137 2154 ft 0 kts 128°
2026-05-07 22:34 -23.00855 -47.15136 2155 ft 0 kts 128°